Time,TemperatureF,DewpointF,PressureIn,WindDirection,WindDirectionDegrees,WindSpeedMPH,WindSpeedGustMPH,Humidity,HourlyPrecipIn,Conditions,Clouds,dailyrainin,SoftwareType,DateUTC
2013-03-19 00:00:00,36.9,1.6,29.41,WNW,292,12.8,22.8,22,0.54,,,0.00,VWS V13.01,2013-03-19 05:00:00,
2013-03-19 00:01:00,36.9,1.6,29.41,NW,315,8.7,14.1,22,0.54,,,0.00,VWS V13.01,2013-03-19 05:01:00,
2013-03-19 00:02:00,36.9,1.6,29.41,West,270,10.1,13.6,22,0.54,,,0.00,VWS V13.01,2013-03-19 05:02:00,
2013-03-19 00:03:00,36.9,1.6,29.41,West,270,7.6,11.0,22,0.54,,,0.00,VWS V13.01,2013-03-19 05:03:00,
2013-03-19 00:04:00,36.9,1.6,29.41,West,270,10.5,10.5,22,0.54,,,0.00,VWS V13.01,2013-03-19 05:04:00,
2013-03-19 00:05:00,36.7,1.4,29.41,NNW,338,10.5,10.5,22,0.54,,,0.00,VWS V13.01,2013-03-19 05:05:00,
2013-03-19 00:06:00,36.7,1.4,29.41,NW,315,10.5,10.5,22,0.54,,,0.00,VWS V13.01,2013-03-19 05:06:00,
2013-03-19 00:07:00,36.3,1.1,29.41,NW,315,8.7,10.5,22,0.54,,,0.00,VWS V13.01,2013-03-19 05:07:00,
2013-03-19 00:08:00,36.3,1.1,29.41,NW,315,4.9,9.6,22,0.54,,,0.00,VWS V13.01,2013-03-19 05:08:00,
2013-03-19 00:09:00,36.3,1.1,29.41,North,0,7.6,8.7,22,0.54,,,0.00,VWS V13.01,2013-03-19 05:09:00,
2013-03-19 00:10:00,36.1,1.0,29.41,NW,315,4.0,8.7,22,0.54,,,0.00,VWS V13.01,2013-03-19 05:10:00,
2013-03-19 00:11:00,36.1,1.0,29.41,NW,315,0.0,7.6,22,0.54,,,0.00,VWS V13.01,2013-03-19 05:11:00,
2013-03-19 00:12:00,36.0,0.8,29.41,North,0,4.9,6.3,22,0.54,,,0.00,VWS V13.01,2013-03-19 05:12:00,
2013-03-19 00:13:00,35.8,0.7,29.41,NW,315,4.9,5.8,22,0.54,,,0.00,VWS V13.01,2013-03-19 05:13:00,
2013-03-19 00:14:00,35.8,0.7,29.41,NW,315,8.7,8.7,22,0.54,,,0.00,VWS V13.01,2013-03-19 05:14:00,
2013-03-19 00:15:00,35.6,2.4,29.41,NW,315,8.7,9.2,24,0.54,,,0.00,VWS V13.01,2013-03-19 05:15:00,
2013-03-19 00:16:00,35.6,2.4,29.44,North,0,2.7,8.7,24,0.54,,,0.00,VWS V13.01,2013-03-19 05:16:00,
2013-03-19 00:17:00,35.4,3.1,29.44,NW,315,10.1,10.1,25,0.00,,,0.00,VWS V13.01,2013-03-19 05:17:00,
2013-03-19 00:18:00,35.4,3.1,29.44,NW,315,8.1,11.0,25,0.00,,,0.00,VWS V13.01,2013-03-19 05:18:00,
2013-03-19 00:19:00,35.6,0.5,29.44,NW,315,8.3,15.4,22,0.00,,,0.00,VWS V13.01,2013-03-19 05:19:00,
2013-03-19 00:20:00,35.6,0.5,29.44,WNW,292,9.6,9.6,22,0.00,,,0.00,VWS V13.01,2013-03-19 05:20:00,
2013-03-19 00:21:00,35.6,0.5,29.44,West,270,10.1,16.8,22,0.00,,,0.00,VWS V13.01,2013-03-19 05:21:00,
2013-03-19 00:22:00,35.6,0.5,29.44,West,270,13.2,13.2,22,0.00,,,0.00,VWS V13.01,2013-03-19 05:22:00,
2013-03-19 00:23:00,35.6,0.5,29.44,WNW,292,8.3,14.5,22,0.00,,,0.00,VWS V13.01,2013-03-19 05:23:00,
2013-03-19 00:24:00,35.6,0.5,29.44,NW,315,6.3,6.3,22,0.00,,,0.00,VWS V13.01,2013-03-19 05:24:00,
2013-03-19 00:25:00,35.4,0.4,29.44,NW,315,10.1,14.1,22,0.00,,,0.00,VWS V13.01,2013-03-19 05:25:00,
2013-03-19 00:26:00,35.4,0.4,29.44,NW,315,8.7,10.1,22,0.00,,,0.00,VWS V13.01,2013-03-19 05:26:00,
2013-03-19 00:27:00,35.4,0.4,29.44,NW,315,13.2,17.5,22,0.00,,,0.00,VWS V13.01,2013-03-19 05:27:00,
2013-03-19 00:28:00,35.4,0.4,29.44,WNW,292,5.8,13.2,22,0.00,,,0.00,VWS V13.01,2013-03-19 05:28:00,
2013-03-19 00:29:00,35.4,0.4,29.44,NW,315,11.0,11.0,22,0.00,,,0.00,VWS V13.01,2013-03-19 05:29:00,
2013-03-19 00:30:00,35.2,0.2,29.44,NW,315,8.3,11.0,22,0.00,,,0.00,VWS V13.01,2013-03-19 05:30:00,
2013-03-19 00:31:00,35.2,0.2,29.44,WNW,292,11.9,11.9,22,0.00,,,0.00,VWS V13.01,2013-03-19 05:31:00,
2013-03-19 00:32:00,35.2,0.2,29.41,NNW,338,5.4,12.8,22,0.00,,,0.00,VWS V13.01,2013-03-19 05:32:00,
2013-03-19 00:33:00,35.2,0.2,29.41,West,270,10.1,10.1,22,0.00,,,0.00,VWS V13.01,2013-03-19 05:33:00,
2013-03-19 00:34:00,35.1,0.1,29.41,NW,315,8.7,8.7,22,0.00,,,0.00,VWS V13.01,2013-03-19 05:34:00,
2013-03-19 00:35:00,35.1,0.1,29.41,NW,315,15.4,15.4,22,0.00,,,0.00,VWS V13.01,2013-03-19 05:35:00,
2013-03-19 00:36:00,35.1,0.1,29.41,NNW,338,12.8,15.4,22,0.00,,,0.00,VWS V13.01,2013-03-19 05:36:00,
2013-03-19 00:37:00,34.9,-0.1,29.41,NW,315,8.1,12.8,22,0.00,,,0.00,VWS V13.01,2013-03-19 05:37:00,
2013-03-19 00:38:00,34.9,-0.1,29.41,NNW,338,9.6,9.6,22,0.00,,,0.00,VWS V13.01,2013-03-19 05:38:00,
2013-03-19 00:39:00,34.9,-0.1,29.41,WNW,292,10.5,10.5,22,0.00,,,0.00,VWS V13.01,2013-03-19 05:39:00,
2013-03-19 00:40:00,34.9,-0.1,29.41,NW,315,7.6,10.5,22,0.00,,,0.00,VWS V13.01,2013-03-19 05:40:00,
2013-03-19 00:41:00,34.9,-0.1,29.41,NW,315,8.3,8.3,22,0.00,,,0.00,VWS V13.01,2013-03-19 05:41:00,
2013-03-19 00:42:00,34.7,-0.2,29.41,West,270,4.0,8.7,22,0.00,,,0.00,VWS V13.01,2013-03-19 05:42:00,
2013-03-19 00:43:00,34.7,-0.2,29.41,NW,315,5.4,6.3,22,0.00,,,0.00,VWS V13.01,2013-03-19 05:43:00,
2013-03-19 00:44:00,34.5,-0.4,29.41,West,270,5.8,5.8,22,0.00,,,0.00,VWS V13.01,2013-03-19 05:44:00,
2013-03-19 00:45:00,34.5,-0.4,29.41,NW,315,7.6,8.3,22,0.00,,,0.00,VWS V13.01,2013-03-19 05:45:00,
2013-03-19 00:46:00,34.5,-0.4,29.41,WNW,292,7.6,10.1,22,0.00,,,0.00,VWS V13.01,2013-03-19 05:46:00,
2013-03-19 00:47:00,34.3,-0.6,29.41,West,270,10.5,11.0,22,0.00,,,0.00,VWS V13.01,2013-03-19 05:47:00,
2013-03-19 00:48:00,34.3,-0.6,29.41,NW,315,7.2,10.5,22,0.00,,,0.00,VWS V13.01,2013-03-19 05:48:00,
2013-03-19 00:49:00,34.3,-0.6,29.41,West,270,8.1,8.1,22,0.00,,,0.00,VWS V13.01,2013-03-19 05:49:00,
2013-03-19 00:50:00,34.3,-0.6,29.41,NNW,338,5.8,8.3,22,0.00,,,0.00,VWS V13.01,2013-03-19 05:50:00,
2013-03-19 00:51:00,34.3,-0.6,29.41,West,270,5.8,7.6,22,0.00,,,0.00,VWS V13.01,2013-03-19 05:51:00,
2013-03-19 00:52:00,34.3,-0.6,29.41,NW,315,5.4,5.8,22,0.00,,,0.00,VWS V13.01,2013-03-19 05:52:00,
2013-03-19 00:53:00,34.2,-0.7,29.41,West,270,5.4,7.6,22,0.00,,,0.00,VWS V13.01,2013-03-19 05:53:00,
2013-03-19 00:54:00,34.2,-0.7,29.41,NW,315,5.8,7.2,22,0.00,,,0.00,VWS V13.01,2013-03-19 05:54:00,
2013-03-19 00:55:00,34.2,-0.7,29.41,NW,315,6.3,7.6,22,0.00,,,0.00,VWS V13.01,2013-03-19 05:55:00,
2013-03-19 00:56:00,34.2,-0.7,29.41,WNW,292,6.3,7.2,22,0.00,,,0.00,VWS V13.01,2013-03-19 05:56:00,
2013-03-19 00:57:00,34.2,-0.7,29.41,NW,315,5.4,7.6,22,0.00,,,0.00,VWS V13.01,2013-03-19 05:57:00,
2013-03-19 00:58:00,34.2,-0.7,29.41,WNW,292,8.3,8.3,22,0.00,,,0.00,VWS V13.01,2013-03-19 05:58:00,
2013-03-19 00:59:00,34.0,-0.9,29.41,NNW,338,8.7,8.7,22,0.00,,,0.00,VWS V13.01,2013-03-19 05:59:00,
2013-03-19 01:00:00,34.0,-0.9,29.41,NW,315,9.2,9.6,22,0.00,,,0.00,VWS V13.01,2013-03-19 06:00:00,
2013-03-19 01:01:00,34.0,-0.9,29.44,West,270,6.3,9.6,22,0.00,,,0.00,VWS V13.01,2013-03-19 06:01:00,
2013-03-19 01:02:00,34.0,-0.9,29.44,West,270,3.1,8.3,22,0.00,,,0.00,VWS V13.01,2013-03-19 06:02:00,
2013-03-19 01:03:00,34.0,-0.9,29.44,West,270,5.4,5.8,22,0.00,,,0.00,VWS V13.01,2013-03-19 06:03:00,
2013-03-19 01:04:00,34.0,-0.9,29.44,West,270,4.9,10.1,22,0.00,,,0.00,VWS V13.01,2013-03-19 06:04:00,
2013-03-19 01:05:00,34.0,-0.9,29.44,WNW,292,6.3,8.7,22,0.00,,,0.00,VWS V13.01,2013-03-19 06:05:00,
2013-03-19 01:06:00,34.0,-0.9,29.44,West,270,3.6,8.7,22,0.00,,,0.00,VWS V13.01,2013-03-19 06:06:00,
2013-03-19 01:07:00,33.8,-1.0,29.44,WNW,292,7.6,7.6,22,0.00,,,0.00,VWS V13.01,2013-03-19 06:07:00,
2013-03-19 01:08:00,33.8,-1.0,29.44,NW,315,7.2,9.6,22,0.00,,,0.00,VWS V13.01,2013-03-19 06:08:00,
2013-03-19 01:09:00,33.8,-1.0,29.44,NW,315,3.6,8.3,22,0.00,,,0.00,VWS V13.01,2013-03-19 06:09:00,
2013-03-19 01:10:00,33.8,-1.0,29.44,NW,315,8.7,8.7,22,0.00,,,0.00,VWS V13.01,2013-03-19 06:10:00,
2013-03-19 01:11:00,33.8,-1.0,29.44,WNW,292,7.6,8.7,22,0.00,,,0.00,VWS V13.01,2013-03-19 06:11:00,
2013-03-19 01:12:00,33.8,-1.0,29.44,NNW,338,5.4,7.6,22,0.00,,,0.00,VWS V13.01,2013-03-19 06:12:00,
2013-03-19 01:13:00,33.8,-1.0,29.44,NW,315,8.3,8.3,22,0.00,,,0.00,VWS V13.01,2013-03-19 06:13:00,
2013-03-19 01:14:00,33.8,-1.0,29.44,NW,315,6.3,8.3,22,0.00,,,0.00,VWS V13.01,2013-03-19 06:14:00,
2013-03-19 01:15:00,33.8,-1.0,29.44,WNW,292,5.8,6.3,22,0.00,,,0.00,VWS V13.01,2013-03-19 06:15:00,
2013-03-19 01:16:00,33.8,-1.0,29.44,NW,315,4.9,6.3,22,0.00,,,0.00,VWS V13.01,2013-03-19 06:16:00,
2013-03-19 01:17:00,33.8,-1.0,29.44,WNW,292,7.6,7.6,22,0.00,,,0.00,VWS V13.01,2013-03-19 06:17:00,
2013-03-19 01:18:00,33.6,-0.2,29.44,NW,315,6.3,8.1,23,0.00,,,0.00,VWS V13.01,2013-03-19 06:18:00,
2013-03-19 01:19:00,33.6,-0.2,29.44,NW,315,2.7,7.2,23,0.00,,,0.00,VWS V13.01,2013-03-19 06:19:00,
2013-03-19 01:20:00,33.6,-0.2,29.44,NW,315,8.1,8.3,23,0.00,,,0.00,VWS V13.01,2013-03-19 06:20:00,
2013-03-19 01:21:00,33.6,-0.2,29.44,NW,315,5.8,8.1,23,0.00,,,0.00,VWS V13.01,2013-03-19 06:21:00,
2013-03-19 01:22:00,33.6,-0.2,29.44,NW,315,6.7,8.3,23,0.00,,,0.00,VWS V13.01,2013-03-19 06:22:00,
2013-03-19 01:23:00,33.6,-0.2,29.44,West,270,3.6,8.1,23,0.00,,,0.00,VWS V13.01,2013-03-19 06:23:00,
2013-03-19 01:24:00,33.6,-0.2,29.44,NW,315,5.8,8.1,23,0.00,,,0.00,VWS V13.01,2013-03-19 06:24:00,
2013-03-19 01:25:00,33.4,-0.4,29.44,West,270,5.4,7.2,23,0.00,,,0.00,VWS V13.01,2013-03-19 06:25:00,
2013-03-19 01:26:00,33.4,-0.4,29.44,NW,315,10.5,10.5,23,0.00,,,0.00,VWS V13.01,2013-03-19 06:26:00,
2013-03-19 01:27:00,33.4,-0.4,29.44,WNW,292,6.3,10.5,23,0.00,,,0.00,VWS V13.01,2013-03-19 06:27:00,
2013-03-19 01:28:00,33.4,-0.4,29.44,NW,315,5.4,6.3,23,0.00,,,0.00,VWS V13.01,2013-03-19 06:28:00,
2013-03-19 01:29:00,33.3,-0.5,29.44,WNW,292,8.3,8.3,23,0.00,,,0.00,VWS V13.01,2013-03-19 06:29:00,
2013-03-19 01:30:00,33.3,-0.5,29.44,NW,315,5.8,8.3,23,0.00,,,0.00,VWS V13.01,2013-03-19 06:30:00,
2013-03-19 01:31:00,33.3,-0.5,29.44,West,270,8.1,8.1,23,0.00,,,0.00,VWS V13.01,2013-03-19 06:31:00,
2013-03-19 01:32:00,33.3,-0.5,29.44,WNW,292,6.7,9.6,23,0.00,,,0.00,VWS V13.01,2013-03-19 06:32:00,
2013-03-19 01:33:00,33.4,-0.4,29.44,NW,315,5.4,7.6,23,0.00,,,0.00,VWS V13.01,2013-03-19 06:33:00,
2013-03-19 01:34:00,33.4,-0.4,29.44,WNW,292,5.8,8.3,23,0.00,,,0.00,VWS V13.01,2013-03-19 06:34:00,
2013-03-19 01:35:00,33.4,-0.4,29.44,NW,315,4.9,5.8,23,0.00,,,0.00,VWS V13.01,2013-03-19 06:35:00,
2013-03-19 01:36:00,33.3,-0.5,29.44,WNW,292,9.2,9.2,23,0.00,,,0.00,VWS V13.01,2013-03-19 06:36:00,
2013-03-19 01:37:00,33.3,-0.5,29.44,West,270,4.9,9.2,23,0.00,,,0.00,VWS V13.01,2013-03-19 06:37:00,
2013-03-19 01:38:00,33.3,-0.5,29.44,NW,315,3.1,8.1,23,0.00,,,0.00,VWS V13.01,2013-03-19 06:38:00,
2013-03-19 01:39:00,33.1,-0.7,29.44,WNW,292,4.0,6.3,23,0.00,,,0.00,VWS V13.01,2013-03-19 06:39:00,
2013-03-19 01:40:00,33.1,-0.7,29.44,West,270,7.6,7.6,23,0.00,,,0.00,VWS V13.01,2013-03-19 06:40:00,
2013-03-19 01:41:00,33.1,-0.7,29.44,WNW,292,6.7,7.6,23,0.00,,,0.00,VWS V13.01,2013-03-19 06:41:00,
2013-03-19 01:42:00,33.1,-0.7,29.44,West,270,6.3,7.6,23,0.00,,,0.00,VWS V13.01,2013-03-19 06:42:00,
2013-03-19 01:43:00,33.1,-0.7,29.44,West,270,4.9,8.1,23,0.00,,,0.00,VWS V13.01,2013-03-19 06:43:00,
2013-03-19 01:44:00,33.1,-0.7,29.44,West,270,7.2,7.2,23,0.00,,,0.00,VWS V13.01,2013-03-19 06:44:00,
2013-03-19 01:45:00,33.1,-0.7,29.44,NW,315,7.6,11.0,23,0.00,,,0.00,VWS V13.01,2013-03-19 06:45:00,
2013-03-19 01:46:00,33.1,-0.7,29.41,West,270,4.9,6.7,23,0.00,,,0.00,VWS V13.01,2013-03-19 06:46:00,
2013-03-19 01:47:00,33.1,-0.7,29.41,NW,315,8.1,8.1,23,0.00,,,0.00,VWS V13.01,2013-03-19 06:47:00,
2013-03-19 01:48:00,33.1,-0.7,29.41,NW,315,5.4,8.1,23,0.00,,,0.00,VWS V13.01,2013-03-19 06:48:00,
2013-03-19 01:49:00,33.1,-0.7,29.41,WNW,292,7.6,7.6,23,0.00,,,0.00,VWS V13.01,2013-03-19 06:49:00,
2013-03-19 01:50:00,33.1,-0.7,29.41,NW,315,8.3,8.7,23,0.00,,,0.00,VWS V13.01,2013-03-19 06:50:00,
2013-03-19 01:51:00,33.1,-0.7,29.41,West,270,5.8,7.6,23,0.00,,,0.00,VWS V13.01,2013-03-19 06:51:00,
2013-03-19 01:52:00,33.1,-0.7,29.41,NW,315,8.7,8.7,23,0.00,,,0.00,VWS V13.01,2013-03-19 06:52:00,
2013-03-19 01:53:00,33.1,-0.7,29.41,NW,315,5.4,8.7,23,0.00,,,0.00,VWS V13.01,2013-03-19 06:53:00,
2013-03-19 01:54:00,33.1,-0.7,29.41,NW,315,5.8,6.3,23,0.00,,,0.00,VWS V13.01,2013-03-19 06:54:00,
2013-03-19 01:55:00,33.1,-0.7,29.41,West,270,10.1,10.1,23,0.00,,,0.00,VWS V13.01,2013-03-19 06:55:00,
2013-03-19 01:56:00,33.3,-0.5,29.41,West,270,9.6,10.5,23,0.00,,,0.00,VWS V13.01,2013-03-19 06:56:00,
2013-03-19 01:57:00,33.3,-0.5,29.41,West,270,9.6,10.5,23,0.00,,,0.00,VWS V13.01,2013-03-19 06:57:00,
2013-03-19 01:58:00,33.3,-0.5,29.41,West,270,9.2,9.6,23,0.00,,,0.00,VWS V13.01,2013-03-19 06:58:00,
2013-03-19 01:59:00,33.3,-0.5,29.41,West,270,7.2,10.1,23,0.00,,,0.00,VWS V13.01,2013-03-19 06:59:00,
2013-03-19 02:00:00,33.3,-0.5,29.41,WNW,292,7.2,7.2,23,0.00,,,0.00,VWS V13.01,2013-03-19 07:00:00,
2013-03-19 02:01:00,33.1,-0.7,29.41,WNW,292,11.0,11.0,23,0.00,,,0.00,VWS V13.01,2013-03-19 07:01:00,
2013-03-19 02:02:00,33.1,-0.7,29.44,West,270,6.3,6.3,23,0.00,,,0.00,VWS V13.01,2013-03-19 07:02:00,
2013-03-19 02:03:00,33.1,-0.7,29.44,West,270,6.3,8.1,23,0.00,,,0.00,VWS V13.01,2013-03-19 07:03:00,
2013-03-19 02:04:00,33.1,-0.7,29.44,WNW,292,5.8,7.6,23,0.00,,,0.00,VWS V13.01,2013-03-19 07:04:00,
2013-03-19 02:05:00,33.1,-0.7,29.44,West,270,9.6,9.6,23,0.00,,,0.00,VWS V13.01,2013-03-19 07:05:00,
2013-03-19 02:06:00,33.1,-0.7,29.44,WNW,292,7.6,9.6,23,0.00,,,0.00,VWS V13.01,2013-03-19 07:06:00,
2013-03-19 02:07:00,33.1,-0.7,29.44,West,270,14.1,14.1,23,0.00,,,0.00,VWS V13.01,2013-03-19 07:07:00,
2013-03-19 02:08:00,32.9,-0.8,29.44,NW,315,11.0,14.1,23,0.00,,,0.00,VWS V13.01,2013-03-19 07:08:00,
2013-03-19 02:09:00,33.1,-0.7,29.44,NW,315,4.9,11.0,23,0.00,,,0.00,VWS V13.01,2013-03-19 07:09:00,
2013-03-19 02:10:00,33.1,-0.7,29.44,West,270,4.9,9.6,23,0.00,,,0.00,VWS V13.01,2013-03-19 07:10:00,
2013-03-19 02:11:00,32.9,-0.8,29.44,West,270,5.8,8.3,23,0.00,,,0.00,VWS V13.01,2013-03-19 07:11:00,
2013-03-19 02:12:00,32.9,-0.8,29.44,West,270,7.6,8.1,23,0.00,,,0.00,VWS V13.01,2013-03-19 07:12:00,
2013-03-19 02:13:00,32.9,-0.8,29.44,West,270,10.1,10.5,23,0.00,,,0.00,VWS V13.01,2013-03-19 07:13:00,
2013-03-19 02:14:00,32.9,-0.8,29.44,NW,315,11.0,11.4,23,0.00,,,0.00,VWS V13.01,2013-03-19 07:14:00,
2013-03-19 02:15:00,32.9,-0.8,29.44,WNW,292,9.6,11.0,23,0.00,,,0.00,VWS V13.01,2013-03-19 07:15:00,
2013-03-19 02:16:00,32.9,-0.8,29.44,NW,315,6.3,9.6,23,0.00,,,0.00,VWS V13.01,2013-03-19 07:16:00,
2013-03-19 02:17:00,32.9,-0.8,29.44,West,270,8.1,8.3,23,0.00,,,0.00,VWS V13.01,2013-03-19 07:17:00,
2013-03-19 02:18:00,32.9,-0.8,29.44,West,270,6.7,10.5,23,0.00,,,0.00,VWS V13.01,2013-03-19 07:18:00,
2013-03-19 02:19:00,32.9,-0.8,29.44,West,270,3.1,6.7,23,0.00,,,0.00,VWS V13.01,2013-03-19 07:19:00,
2013-03-19 02:20:00,32.7,-1.0,29.44,WNW,292,8.1,8.1,23,0.00,,,0.00,VWS V13.01,2013-03-19 07:20:00,
2013-03-19 02:21:00,32.7,-1.0,29.44,West,270,5.4,8.1,23,0.00,,,0.00,VWS V13.01,2013-03-19 07:21:00,
2013-03-19 02:22:00,32.7,-1.0,29.44,NW,315,8.7,10.5,23,0.00,,,0.00,VWS V13.01,2013-03-19 07:22:00,
2013-03-19 02:23:00,32.7,-1.0,29.44,WNW,292,8.7,10.1,23,0.00,,,0.00,VWS V13.01,2013-03-19 07:23:00,
2013-03-19 02:24:00,32.7,-1.0,29.44,West,270,8.3,8.7,23,0.00,,,0.00,VWS V13.01,2013-03-19 07:24:00,
2013-03-19 02:25:00,32.7,-1.0,29.44,West,270,8.3,8.7,23,0.00,,,0.00,VWS V13.01,2013-03-19 07:25:00,
2013-03-19 02:26:00,32.7,-1.0,29.44,WNW,292,9.6,10.1,23,0.00,,,0.00,VWS V13.01,2013-03-19 07:26:00,
2013-03-19 02:27:00,32.7,-1.0,29.44,West,270,6.3,8.7,23,0.00,,,0.00,VWS V13.01,2013-03-19 07:27:00,
2013-03-19 02:28:00,32.7,-1.0,29.44,WNW,292,8.1,8.7,23,0.00,,,0.00,VWS V13.01,2013-03-19 07:28:00,
2013-03-19 02:29:00,32.7,-1.0,29.44,WNW,292,5.4,8.1,23,0.00,,,0.00,VWS V13.01,2013-03-19 07:29:00,
2013-03-19 02:30:00,32.7,-1.0,29.44,West,270,7.6,7.6,23,0.00,,,0.00,VWS V13.01,2013-03-19 07:30:00,
2013-03-19 02:31:00,32.7,-1.0,29.44,WNW,292,8.3,8.3,23,0.00,,,0.00,VWS V13.01,2013-03-19 07:31:00,
2013-03-19 02:32:00,32.7,-1.0,29.44,NW,315,5.8,6.3,23,0.00,,,0.00,VWS V13.01,2013-03-19 07:32:00,
2013-03-19 02:33:00,32.5,-1.1,29.44,WNW,292,5.4,6.3,23,0.00,,,0.00,VWS V13.01,2013-03-19 07:33:00,
2013-03-19 02:34:00,32.5,-1.1,29.44,West,270,6.7,6.7,23,0.00,,,0.00,VWS V13.01,2013-03-19 07:34:00,
2013-03-19 02:35:00,32.5,-1.1,29.44,WNW,292,5.4,7.2,23,0.00,,,0.00,VWS V13.01,2013-03-19 07:35:00,
2013-03-19 02:36:00,32.5,-1.1,29.44,West,270,5.8,5.8,23,0.00,,,0.00,VWS V13.01,2013-03-19 07:36:00,
2013-03-19 02:37:00,32.5,-1.1,29.44,West,270,6.3,6.3,23,0.00,,,0.00,VWS V13.01,2013-03-19 07:37:00,
2013-03-19 02:38:00,32.5,-1.1,29.44,West,270,4.9,6.3,23,0.00,,,0.00,VWS V13.01,2013-03-19 07:38:00,
2013-03-19 02:39:00,32.4,-1.3,29.44,West,270,3.6,6.3,23,0.00,,,0.00,VWS V13.01,2013-03-19 07:39:00,
2013-03-19 02:40:00,32.2,-1.4,29.44,West,270,4.9,5.4,23,0.00,,,0.00,VWS V13.01,2013-03-19 07:40:00,
2013-03-19 02:41:00,32.2,0.3,29.44,West,270,5.4,5.4,25,0.00,,,0.00,VWS V13.01,2013-03-19 07:41:00,
2013-03-19 02:42:00,32.2,0.3,29.44,WNW,292,5.8,6.3,25,0.00,,,0.00,VWS V13.01,2013-03-19 07:42:00,
2013-03-19 02:43:00,32.2,0.3,29.44,WNW,292,6.3,6.3,25,0.00,,,0.00,VWS V13.01,2013-03-19 07:43:00,
2013-03-19 02:44:00,32.2,0.3,29.44,West,270,4.0,4.0,25,0.00,,,0.00,VWS V13.01,2013-03-19 07:44:00,
2013-03-19 02:45:00,32.2,0.3,29.44,West,270,6.3,6.3,25,0.00,,,0.00,VWS V13.01,2013-03-19 07:45:00,
2013-03-19 02:46:00,32.0,0.2,29.44,West,270,3.6,6.3,25,0.00,,,0.00,VWS V13.01,2013-03-19 07:46:00,
2013-03-19 02:47:00,31.8,0.0,29.44,West,270,4.9,4.9,25,0.00,,,0.00,VWS V13.01,2013-03-19 07:47:00,
2013-03-19 02:48:00,31.8,0.0,29.44,West,270,4.0,4.9,25,0.00,,,0.00,VWS V13.01,2013-03-19 07:48:00,
2013-03-19 02:49:00,31.8,0.0,29.44,WNW,292,3.1,4.9,25,0.00,,,0.00,VWS V13.01,2013-03-19 07:49:00,
2013-03-19 02:50:00,31.8,0.0,29.44,West,270,2.7,5.8,25,0.00,,,0.00,VWS V13.01,2013-03-19 07:50:00,
2013-03-19 02:51:00,31.8,2.4,29.44,West,270,4.0,4.0,28,0.00,,,0.00,VWS V13.01,2013-03-19 07:51:00,
2013-03-19 02:52:00,31.6,2.3,29.44,West,270,5.4,5.4,28,0.00,,,0.00,VWS V13.01,2013-03-19 07:52:00,
2013-03-19 02:53:00,31.6,2.3,29.44,West,270,4.0,5.4,28,0.00,,,0.00,VWS V13.01,2013-03-19 07:53:00,
2013-03-19 02:54:00,31.5,2.1,29.44,West,270,4.0,6.3,28,0.00,,,0.00,VWS V13.01,2013-03-19 07:54:00,
2013-03-19 02:55:00,31.5,2.1,29.44,West,270,4.5,7.6,28,0.00,,,0.00,VWS V13.01,2013-03-19 07:55:00,
2013-03-19 02:56:00,31.5,2.1,29.44,West,270,4.9,4.9,28,0.00,,,0.00,VWS V13.01,2013-03-19 07:56:00,
2013-03-19 02:57:00,31.5,2.1,29.44,West,270,4.0,5.4,28,0.00,,,0.00,VWS V13.01,2013-03-19 07:57:00,
2013-03-19 02:58:00,31.5,3.6,29.44,West,270,3.6,3.6,30,0.00,,,0.00,VWS V13.01,2013-03-19 07:58:00,
2013-03-19 02:59:00,31.3,3.5,29.44,West,270,4.9,4.9,30,0.00,,,0.00,VWS V13.01,2013-03-19 07:59:00,
2013-03-19 03:00:00,31.3,3.5,29.44,West,270,5.4,5.4,30,0.00,,,0.00,VWS V13.01,2013-03-19 08:00:00,
2013-03-19 03:01:00,31.3,3.5,29.44,West,270,5.4,5.4,30,0.00,,,0.00,VWS V13.01,2013-03-19 08:01:00,
2013-03-19 03:02:00,31.1,3.3,29.47,West,270,5.4,5.8,30,0.00,,,0.00,VWS V13.01,2013-03-19 08:02:00,
2013-03-19 03:03:00,31.1,3.3,29.47,West,270,5.8,6.3,30,0.00,,,0.00,VWS V13.01,2013-03-19 08:03:00,
2013-03-19 03:04:00,31.1,3.3,29.47,West,270,4.9,5.8,30,0.00,,,0.00,VWS V13.01,2013-03-19 08:04:00,
2013-03-19 03:05:00,31.1,3.3,29.47,West,270,7.6,7.6,30,0.00,,,0.00,VWS V13.01,2013-03-19 08:05:00,
2013-03-19 03:06:00,31.1,3.3,29.47,West,270,4.0,7.6,30,0.00,,,0.00,VWS V13.01,2013-03-19 08:06:00,
2013-03-19 03:07:00,31.1,3.3,29.47,West,270,6.3,6.3,30,0.00,,,0.00,VWS V13.01,2013-03-19 08:07:00,
2013-03-19 03:08:00,31.1,3.3,29.47,West,270,5.8,8.7,30,0.00,,,0.00,VWS V13.01,2013-03-19 08:08:00,
2013-03-19 03:09:00,31.1,3.3,29.47,West,270,5.4,5.8,30,0.00,,,0.00,VWS V13.01,2013-03-19 08:09:00,
2013-03-19 03:10:00,31.1,3.3,29.47,West,270,5.8,5.8,30,0.00,,,0.00,VWS V13.01,2013-03-19 08:10:00,
2013-03-19 03:11:00,31.1,3.3,29.47,West,270,3.1,5.8,30,0.00,,,0.00,VWS V13.01,2013-03-19 08:11:00,
2013-03-19 03:12:00,30.9,3.1,29.47,West,270,4.9,6.3,30,0.00,,,0.00,VWS V13.01,2013-03-19 08:12:00,
2013-03-19 03:13:00,30.9,3.1,29.47,West,270,5.4,5.4,30,0.00,,,0.00,VWS V13.01,2013-03-19 08:13:00,
2013-03-19 03:14:00,30.9,3.1,29.47,West,270,5.4,5.4,30,0.00,,,0.00,VWS V13.01,2013-03-19 08:14:00,
2013-03-19 03:15:00,30.9,3.1,29.47,West,270,4.0,6.3,30,0.00,,,0.00,VWS V13.01,2013-03-19 08:15:00,
2013-03-19 03:16:00,30.7,3.0,29.47,West,270,5.4,5.8,30,0.00,,,0.00,VWS V13.01,2013-03-19 08:16:00,
2013-03-19 03:17:00,30.7,3.0,29.44,West,270,4.9,6.7,30,0.00,,,0.00,VWS V13.01,2013-03-19 08:17:00,
2013-03-19 03:18:00,30.9,3.1,29.44,West,270,6.3,8.1,30,0.00,,,0.00,VWS V13.01,2013-03-19 08:18:00,
2013-03-19 03:19:00,30.9,3.1,29.44,West,270,4.9,7.2,30,0.00,,,0.00,VWS V13.01,2013-03-19 08:19:00,
2013-03-19 03:20:00,30.9,3.1,29.44,West,270,8.7,8.7,30,0.00,,,0.00,VWS V13.01,2013-03-19 08:20:00,
2013-03-19 03:21:00,31.1,3.3,29.44,West,270,9.6,9.6,30,0.00,,,0.00,VWS V13.01,2013-03-19 08:21:00,
2013-03-19 03:22:00,31.1,3.3,29.44,West,270,7.6,9.6,30,0.00,,,0.00,VWS V13.01,2013-03-19 08:22:00,
2013-03-19 03:23:00,31.3,3.5,29.44,West,270,7.6,8.1,30,0.00,,,0.00,VWS V13.01,2013-03-19 08:23:00,
2013-03-19 03:24:00,31.3,3.5,29.44,WNW,292,10.1,10.1,30,0.00,,,0.00,VWS V13.01,2013-03-19 08:24:00,
2013-03-19 03:25:00,31.5,2.1,29.44,SW,225,5.8,10.1,28,0.00,,,0.00,VWS V13.01,2013-03-19 08:25:00,
2013-03-19 03:26:00,31.5,2.1,29.44,WNW,292,8.7,8.7,28,0.00,,,0.00,VWS V13.01,2013-03-19 08:26:00,
2013-03-19 03:27:00,31.5,2.1,29.44,West,270,7.6,8.7,28,0.00,,,0.00,VWS V13.01,2013-03-19 08:27:00,
2013-03-19 03:28:00,31.5,2.1,29.44,West,270,4.9,7.6,28,0.00,,,0.00,VWS V13.01,2013-03-19 08:28:00,
2013-03-19 03:29:00,31.5,2.1,29.44,West,270,6.3,7.6,28,0.00,,,0.00,VWS V13.01,2013-03-19 08:29:00,
2013-03-19 03:30:00,31.3,2.0,29.44,West,270,5.8,6.3,28,0.00,,,0.00,VWS V13.01,2013-03-19 08:30:00,
2013-03-19 03:31:00,31.3,2.0,29.44,West,270,4.0,8.1,28,0.00,,,0.00,VWS V13.01,2013-03-19 08:31:00,
2013-03-19 03:32:00,31.3,2.0,29.44,WNW,292,7.6,7.6,28,0.00,,,0.00,VWS V13.01,2013-03-19 08:32:00,
2013-03-19 03:33:00,31.1,3.3,29.44,West,270,5.4,7.6,30,0.00,,,0.00,VWS V13.01,2013-03-19 08:33:00,
2013-03-19 03:34:00,31.1,3.3,29.44,West,270,4.5,5.4,30,0.00,,,0.00,VWS V13.01,2013-03-19 08:34:00,
2013-03-19 03:35:00,31.1,3.3,29.44,West,270,3.6,4.5,30,0.00,,,0.00,VWS V13.01,2013-03-19 08:35:00,
2013-03-19 03:36:00,31.1,3.3,29.44,West,270,4.9,5.4,30,0.00,,,0.00,VWS V13.01,2013-03-19 08:36:00,
2013-03-19 03:37:00,31.1,3.3,29.44,West,270,5.4,6.7,30,0.00,,,0.00,VWS V13.01,2013-03-19 08:37:00,
2013-03-19 03:38:00,31.1,3.3,29.44,West,270,3.6,5.8,30,0.00,,,0.00,VWS V13.01,2013-03-19 08:38:00,
2013-03-19 03:39:00,30.9,3.1,29.44,West,270,3.6,5.4,30,0.00,,,0.00,VWS V13.01,2013-03-19 08:39:00,
2013-03-19 03:40:00,30.9,3.1,29.44,West,270,4.0,5.8,30,0.00,,,0.00,VWS V13.01,2013-03-19 08:40:00,
2013-03-19 03:41:00,30.9,3.1,29.44,West,270,4.9,6.7,30,0.00,,,0.00,VWS V13.01,2013-03-19 08:41:00,
2013-03-19 03:42:00,30.7,3.0,29.44,West,270,4.0,4.9,30,0.00,,,0.00,VWS V13.01,2013-03-19 08:42:00,
2013-03-19 03:43:00,30.7,3.0,29.44,West,270,4.0,5.4,30,0.00,,,0.00,VWS V13.01,2013-03-19 08:43:00,
2013-03-19 03:44:00,30.7,3.0,29.44,West,270,6.3,6.3,30,0.00,,,0.00,VWS V13.01,2013-03-19 08:44:00,
2013-03-19 03:45:00,30.7,3.0,29.44,West,270,7.6,7.6,30,0.00,,,0.00,VWS V13.01,2013-03-19 08:45:00,
2013-03-19 03:46:00,30.7,3.0,29.44,West,270,4.0,7.6,30,0.00,,,0.00,VWS V13.01,2013-03-19 08:46:00,
2013-03-19 03:47:00,30.7,3.0,29.44,West,270,3.1,4.0,30,0.00,,,0.00,VWS V13.01,2013-03-19 08:47:00,
2013-03-19 03:48:00,30.6,2.8,29.44,West,270,5.8,7.6,30,0.00,,,0.00,VWS V13.01,2013-03-19 08:48:00,
2013-03-19 03:49:00,30.6,2.8,29.44,West,270,4.9,5.8,30,0.00,,,0.00,VWS V13.01,2013-03-19 08:49:00,
2013-03-19 03:50:00,30.6,2.8,29.44,West,270,4.9,6.3,30,0.00,,,0.00,VWS V13.01,2013-03-19 08:50:00,
2013-03-19 03:51:00,30.6,2.8,29.44,West,270,6.3,7.2,30,0.00,,,0.00,VWS V13.01,2013-03-19 08:51:00,
2013-03-19 03:52:00,30.6,2.8,29.44,SW,225,3.6,6.3,30,0.00,,,0.00,VWS V13.01,2013-03-19 08:52:00,
2013-03-19 03:53:00,30.6,2.8,29.44,West,270,6.3,6.3,30,0.00,,,0.00,VWS V13.01,2013-03-19 08:53:00,
2013-03-19 03:54:00,30.6,2.8,29.44,West,270,3.1,6.3,30,0.00,,,0.00,VWS V13.01,2013-03-19 08:54:00,
2013-03-19 03:55:00,30.4,2.7,29.44,West,270,3.6,5.4,30,0.00,,,0.00,VWS V13.01,2013-03-19 08:55:00,
2013-03-19 03:56:00,30.4,2.7,29.44,West,270,3.1,5.8,30,0.00,,,0.00,VWS V13.01,2013-03-19 08:56:00,
2013-03-19 03:57:00,30.4,2.7,29.44,West,270,4.0,4.0,30,0.00,,,0.00,VWS V13.01,2013-03-19 08:57:00,
2013-03-19 03:58:00,30.4,2.7,29.44,West,270,5.8,6.3,30,0.00,,,0.00,VWS V13.01,2013-03-19 08:58:00,
2013-03-19 03:59:00,30.4,2.7,29.44,SW,225,5.4,5.8,30,0.00,,,0.00,VWS V13.01,2013-03-19 08:59:00,
2013-03-19 04:00:00,30.4,2.7,29.44,West,270,3.6,5.8,30,0.00,,,0.00,VWS V13.01,2013-03-19 09:00:00,
2013-03-19 04:01:00,30.4,2.7,29.44,West,270,5.4,5.4,30,0.00,,,0.00,VWS V13.01,2013-03-19 09:01:00,
2013-03-19 04:02:00,30.4,2.7,29.44,West,270,3.6,5.4,30,0.00,,,0.00,VWS V13.01,2013-03-19 09:02:00,
2013-03-19 04:03:00,30.4,2.7,29.44,West,270,0.0,3.6,30,0.00,,,0.00,VWS V13.01,2013-03-19 09:03:00,
2013-03-19 04:04:00,30.4,2.7,29.44,SW,225,4.9,4.9,30,0.00,,,0.00,VWS V13.01,2013-03-19 09:04:00,
2013-03-19 04:05:00,30.4,2.7,29.44,West,270,0.0,5.4,30,0.00,,,0.00,VWS V13.01,2013-03-19 09:05:00,
2013-03-19 04:06:00,30.2,2.5,29.44,West,270,0.0,0.0,30,0.00,,,0.00,VWS V13.01,2013-03-19 09:06:00,
2013-03-19 04:07:00,30.2,2.5,29.44,West,270,0.0,0.0,30,0.00,,,0.00,VWS V13.01,2013-03-19 09:07:00,
2013-03-19 04:08:00,30.2,2.5,29.44,West,270,0.0,0.0,30,0.00,,,0.00,VWS V13.01,2013-03-19 09:08:00,
2013-03-19 04:09:00,30.2,2.5,29.44,West,270,0.0,0.0,30,0.00,,,0.00,VWS V13.01,2013-03-19 09:09:00,
2013-03-19 04:10:00,30.2,2.5,29.44,West,270,0.0,0.0,30,0.00,,,0.00,VWS V13.01,2013-03-19 09:10:00,
2013-03-19 04:11:00,30.2,2.5,29.44,SW,225,0.0,0.0,30,0.00,,,0.00,VWS V13.01,2013-03-19 09:11:00,
2013-03-19 04:12:00,30.2,2.5,29.44,West,270,3.6,4.0,30,0.00,,,0.00,VWS V13.01,2013-03-19 09:12:00,
2013-03-19 04:13:00,30.2,2.5,29.44,West,270,3.6,4.9,30,0.00,,,0.00,VWS V13.01,2013-03-19 09:13:00,
2013-03-19 04:14:00,30.2,2.5,29.44,West,270,5.8,5.8,30,0.00,,,0.00,VWS V13.01,2013-03-19 09:14:00,
2013-03-19 04:15:00,30.2,2.5,29.44,West,270,5.8,5.8,30,0.00,,,0.00,VWS V13.01,2013-03-19 09:15:00,
2013-03-19 04:16:00,30.2,2.5,29.44,West,270,5.8,7.2,30,0.00,,,0.00,VWS V13.01,2013-03-19 09:16:00,
2013-03-19 04:17:00,30.2,2.5,29.44,West,270,4.0,6.3,30,0.00,,,0.00,VWS V13.01,2013-03-19 09:17:00,
2013-03-19 04:18:00,30.2,2.5,29.44,West,270,4.5,5.4,30,0.00,,,0.00,VWS V13.01,2013-03-19 09:18:00,
2013-03-19 04:19:00,30.2,2.5,29.44,West,270,8.1,8.1,30,0.00,,,0.00,VWS V13.01,2013-03-19 09:19:00,
2013-03-19 04:20:00,30.2,2.5,29.44,West,270,8.1,8.1,30,0.00,,,0.00,VWS V13.01,2013-03-19 09:20:00,
2013-03-19 04:21:00,30.2,2.5,29.44,West,270,5.4,8.1,30,0.00,,,0.00,VWS V13.01,2013-03-19 09:21:00,
2013-03-19 04:22:00,30.4,2.7,29.44,West,270,6.3,8.1,30,0.00,,,0.00,VWS V13.01,2013-03-19 09:22:00,
2013-03-19 04:23:00,30.4,2.7,29.44,West,270,7.2,8.3,30,0.00,,,0.00,VWS V13.01,2013-03-19 09:23:00,
2013-03-19 04:24:00,30.6,2.8,29.44,West,270,4.9,5.8,30,0.00,,,0.00,VWS V13.01,2013-03-19 09:24:00,
2013-03-19 04:25:00,30.4,2.7,29.44,West,270,4.9,5.8,30,0.00,,,0.00,VWS V13.01,2013-03-19 09:25:00,
2013-03-19 04:26:00,30.4,2.7,29.44,West,270,6.3,6.3,30,0.00,,,0.00,VWS V13.01,2013-03-19 09:26:00,
2013-03-19 04:27:00,30.4,2.7,29.44,West,270,6.3,6.3,30,0.00,,,0.00,VWS V13.01,2013-03-19 09:27:00,
2013-03-19 04:28:00,30.4,2.7,29.44,West,270,4.9,7.2,30,0.00,,,0.00,VWS V13.01,2013-03-19 09:28:00,
2013-03-19 04:29:00,30.4,2.7,29.44,West,270,6.3,6.3,30,0.00,,,0.00,VWS V13.01,2013-03-19 09:29:00,
2013-03-19 04:30:00,30.4,2.7,29.44,West,270,6.3,6.3,30,0.00,,,0.00,VWS V13.01,2013-03-19 09:30:00,
2013-03-19 04:31:00,30.4,2.7,29.44,West,270,6.3,6.3,30,0.00,,,0.00,VWS V13.01,2013-03-19 09:31:00,
2013-03-19 04:32:00,30.4,2.7,29.44,West,270,4.0,6.3,30,0.00,,,0.00,VWS V13.01,2013-03-19 09:32:00,
2013-03-19 04:33:00,30.4,2.7,29.44,West,270,5.4,5.4,30,0.00,,,0.00,VWS V13.01,2013-03-19 09:33:00,
2013-03-19 04:34:00,30.4,2.7,29.44,West,270,8.1,8.1,30,0.00,,,0.00,VWS V13.01,2013-03-19 09:34:00,
2013-03-19 04:35:00,30.4,2.7,29.44,West,270,5.8,8.1,30,0.00,,,0.00,VWS V13.01,2013-03-19 09:35:00,
2013-03-19 04:36:00,30.2,2.5,29.44,West,270,4.0,5.8,30,0.00,,,0.00,VWS V13.01,2013-03-19 09:36:00,
2013-03-19 04:37:00,30.2,2.5,29.44,West,270,3.6,4.0,30,0.00,,,0.00,VWS V13.01,2013-03-19 09:37:00,
2013-03-19 04:38:00,30.2,2.5,29.44,West,270,4.0,4.9,30,0.00,,,0.00,VWS V13.01,2013-03-19 09:38:00,
2013-03-19 04:39:00,30.2,2.5,29.44,West,270,0.0,4.0,30,0.00,,,0.00,VWS V13.01,2013-03-19 09:39:00,
2013-03-19 04:40:00,30.2,2.5,29.44,West,270,5.4,5.4,30,0.00,,,0.00,VWS V13.01,2013-03-19 09:40:00,
2013-03-19 04:41:00,30.2,2.5,29.44,West,270,3.6,5.4,30,0.00,,,0.00,VWS V13.01,2013-03-19 09:41:00,
2013-03-19 04:42:00,30.0,2.3,29.44,West,270,6.7,6.7,30,0.00,,,0.00,VWS V13.01,2013-03-19 09:42:00,
2013-03-19 04:43:00,30.0,2.3,29.44,West,270,4.9,6.7,30,0.00,,,0.00,VWS V13.01,2013-03-19 09:43:00,
2013-03-19 04:44:00,30.0,2.3,29.44,West,270,5.4,5.8,30,0.00,,,0.00,VWS V13.01,2013-03-19 09:44:00,
2013-03-19 04:45:00,30.0,2.3,29.44,West,270,5.4,6.3,30,0.00,,,0.00,VWS V13.01,2013-03-19 09:45:00,
2013-03-19 04:46:00,30.0,2.3,29.44,West,270,11.0,11.0,30,0.00,,,0.00,VWS V13.01,2013-03-19 09:46:00,
2013-03-19 04:47:00,30.2,2.5,29.47,West,270,4.9,11.0,30,0.00,,,0.00,VWS V13.01,2013-03-19 09:47:00,
2013-03-19 04:48:00,30.4,2.7,29.47,West,270,6.7,7.6,30,0.00,,,0.00,VWS V13.01,2013-03-19 09:48:00,
2013-03-19 04:49:00,30.4,2.7,29.47,West,270,8.3,8.3,30,0.00,,,0.00,VWS V13.01,2013-03-19 09:49:00,
2013-03-19 04:50:00,30.4,2.7,29.47,West,270,6.3,9.2,30,0.00,,,0.00,VWS V13.01,2013-03-19 09:50:00,
2013-03-19 04:51:00,30.4,2.7,29.47,West,270,6.3,7.6,30,0.00,,,0.00,VWS V13.01,2013-03-19 09:51:00,
2013-03-19 04:52:00,30.4,2.7,29.47,West,270,6.3,8.1,30,0.00,,,0.00,VWS V13.01,2013-03-19 09:52:00,
2013-03-19 04:53:00,30.4,2.7,29.47,West,270,5.8,7.6,30,0.00,,,0.00,VWS V13.01,2013-03-19 09:53:00,
2013-03-19 04:54:00,30.4,2.7,29.47,West,270,5.8,7.6,30,0.00,,,0.00,VWS V13.01,2013-03-19 09:54:00,
2013-03-19 04:55:00,30.2,2.5,29.47,West,270,10.1,12.3,30,0.00,,,0.00,VWS V13.01,2013-03-19 09:55:00,
2013-03-19 04:56:00,30.4,2.7,29.47,West,270,10.1,12.3,30,0.00,,,0.00,VWS V13.01,2013-03-19 09:56:00,
2013-03-19 04:57:00,30.6,2.8,29.47,West,270,8.7,10.1,30,0.00,,,0.00,VWS V13.01,2013-03-19 09:57:00,
2013-03-19 04:58:00,30.6,1.4,29.47,West,270,8.1,12.3,28,0.00,,,0.00,VWS V13.01,2013-03-19 09:58:00,
2013-03-19 04:59:00,30.7,1.5,29.47,SW,225,9.6,10.5,28,0.00,,,0.00,VWS V13.01,2013-03-19 09:59:00,
2013-03-19 05:00:00,30.7,1.5,29.47,West,270,5.8,10.5,28,0.00,,,0.00,VWS V13.01,2013-03-19 10:00:00,
2013-03-19 05:01:00,30.7,1.5,29.47,West,270,8.7,8.7,28,0.00,,,0.00,VWS V13.01,2013-03-19 10:01:00,
2013-03-19 05:02:00,30.7,1.5,29.47,West,270,7.6,10.5,28,0.00,,,0.00,VWS V13.01,2013-03-19 10:02:00,
2013-03-19 05:03:00,30.6,2.8,29.47,West,270,5.8,8.7,30,0.00,,,0.00,VWS V13.01,2013-03-19 10:03:00,
2013-03-19 05:04:00,30.4,2.7,29.47,West,270,8.3,8.3,30,0.00,,,0.00,VWS V13.01,2013-03-19 10:04:00,
2013-03-19 05:05:00,30.4,2.7,29.47,WNW,292,8.3,10.1,30,0.00,,,0.00,VWS V13.01,2013-03-19 10:05:00,
2013-03-19 05:06:00,30.6,2.8,29.47,West,270,8.7,10.1,30,0.00,,,0.00,VWS V13.01,2013-03-19 10:06:00,
2013-03-19 05:07:00,30.6,2.8,29.47,West,270,7.6,8.7,30,0.00,,,0.00,VWS V13.01,2013-03-19 10:07:00,
2013-03-19 05:08:00,30.4,2.7,29.47,West,270,7.6,9.6,30,0.00,,,0.00,VWS V13.01,2013-03-19 10:08:00,
2013-03-19 05:09:00,30.4,2.7,29.47,West,270,8.1,10.1,30,0.00,,,0.00,VWS V13.01,2013-03-19 10:09:00,
2013-03-19 05:10:00,30.4,2.7,29.47,West,270,8.3,8.3,30,0.00,,,0.00,VWS V13.01,2013-03-19 10:10:00,
2013-03-19 05:11:00,30.2,3.2,29.47,West,270,6.7,8.7,31,0.00,,,0.00,VWS V13.01,2013-03-19 10:11:00,
2013-03-19 05:12:00,30.2,3.2,29.47,West,270,5.8,8.3,31,0.00,,,0.00,VWS V13.01,2013-03-19 10:12:00,
2013-03-19 05:13:00,30.2,3.2,29.47,West,270,5.4,8.1,31,0.00,,,0.00,VWS V13.01,2013-03-19 10:13:00,
2013-03-19 05:14:00,30.2,3.2,29.47,West,270,5.4,8.3,31,0.00,,,0.00,VWS V13.01,2013-03-19 10:14:00,
2013-03-19 05:15:00,30.2,3.2,29.47,West,270,8.1,8.1,31,0.00,,,0.00,VWS V13.01,2013-03-19 10:15:00,
2013-03-19 05:16:00,30.2,3.2,29.47,West,270,8.1,8.3,31,0.00,,,0.00,VWS V13.01,2013-03-19 10:16:00,
2013-03-19 05:17:00,30.2,3.2,29.47,West,270,8.1,8.3,31,0.00,,,0.00,VWS V13.01,2013-03-19 10:17:00,
2013-03-19 05:18:00,30.2,3.2,29.47,West,270,5.4,8.1,31,0.00,,,0.00,VWS V13.01,2013-03-19 10:18:00,
2013-03-19 05:19:00,30.0,3.1,29.47,West,270,6.3,7.6,31,0.00,,,0.00,VWS V13.01,2013-03-19 10:19:00,
2013-03-19 05:20:00,30.0,3.1,29.47,West,270,5.8,6.3,31,0.00,,,0.00,VWS V13.01,2013-03-19 10:20:00,
2013-03-19 05:21:00,29.8,2.9,29.47,West,270,8.7,8.7,31,0.00,,,0.00,VWS V13.01,2013-03-19 10:21:00,
2013-03-19 05:22:00,29.8,2.9,29.47,West,270,7.6,8.7,31,0.00,,,0.00,VWS V13.01,2013-03-19 10:22:00,
2013-03-19 05:23:00,30.0,3.1,29.47,West,270,7.2,9.6,31,0.00,,,0.00,VWS V13.01,2013-03-19 10:23:00,
2013-03-19 05:24:00,30.0,3.1,29.47,West,270,8.3,8.3,31,0.00,,,0.00,VWS V13.01,2013-03-19 10:24:00,
2013-03-19 05:25:00,30.0,3.1,29.47,West,270,8.1,8.3,31,0.00,,,0.00,VWS V13.01,2013-03-19 10:25:00,
2013-03-19 05:26:00,30.0,3.1,29.47,West,270,7.6,8.1,31,0.00,,,0.00,VWS V13.01,2013-03-19 10:26:00,
2013-03-19 05:27:00,30.0,3.1,29.47,West,270,8.3,8.3,31,0.00,,,0.00,VWS V13.01,2013-03-19 10:27:00,
2013-03-19 05:28:00,30.0,3.1,29.47,WNW,292,5.4,8.3,31,0.00,,,0.00,VWS V13.01,2013-03-19 10:28:00,
2013-03-19 05:29:00,30.0,3.1,29.47,West,270,5.8,7.6,31,0.00,,,0.00,VWS V13.01,2013-03-19 10:29:00,
2013-03-19 05:30:00,30.0,3.1,29.47,West,270,6.3,6.3,31,0.00,,,0.00,VWS V13.01,2013-03-19 10:30:00,
2013-03-19 05:31:00,30.0,3.1,29.47,West,270,7.2,7.2,31,0.00,,,0.00,VWS V13.01,2013-03-19 10:31:00,
2013-03-19 05:32:00,29.8,2.9,29.47,West,270,8.1,8.1,31,0.00,,,0.00,VWS V13.01,2013-03-19 10:32:00,
2013-03-19 05:33:00,29.8,2.9,29.47,West,270,5.8,8.1,31,0.00,,,0.00,VWS V13.01,2013-03-19 10:33:00,
2013-03-19 05:34:00,29.7,2.7,29.47,West,270,4.0,5.8,31,0.00,,,0.00,VWS V13.01,2013-03-19 10:34:00,
2013-03-19 05:35:00,29.7,2.7,29.47,West,270,6.7,7.2,31,0.00,,,0.00,VWS V13.01,2013-03-19 10:35:00,
2013-03-19 05:36:00,29.7,2.7,29.47,West,270,8.1,8.1,31,0.00,,,0.00,VWS V13.01,2013-03-19 10:36:00,
2013-03-19 05:37:00,29.7,2.7,29.47,West,270,8.3,8.3,31,0.00,,,0.00,VWS V13.01,2013-03-19 10:37:00,
2013-03-19 05:38:00,29.7,2.7,29.47,West,270,5.4,8.3,31,0.00,,,0.00,VWS V13.01,2013-03-19 10:38:00,
2013-03-19 05:39:00,29.5,2.6,29.47,West,270,6.3,7.6,31,0.00,,,0.00,VWS V13.01,2013-03-19 10:39:00,
2013-03-19 05:40:00,29.5,2.6,29.47,West,270,6.3,7.2,31,0.00,,,0.00,VWS V13.01,2013-03-19 10:40:00,
2013-03-19 05:41:00,29.5,2.6,29.47,West,270,6.3,8.7,31,0.00,,,0.00,VWS V13.01,2013-03-19 10:41:00,
2013-03-19 05:42:00,29.5,2.6,29.47,West,270,8.7,9.2,31,0.00,,,0.00,VWS V13.01,2013-03-19 10:42:00,
2013-03-19 05:43:00,29.5,2.6,29.47,West,270,8.1,8.7,31,0.00,,,0.00,VWS V13.01,2013-03-19 10:43:00,
2013-03-19 05:44:00,29.5,2.6,29.47,West,270,8.3,8.3,31,0.00,,,0.00,VWS V13.01,2013-03-19 10:44:00,
2013-03-19 05:45:00,29.5,2.6,29.47,West,270,10.1,10.1,31,0.00,,,0.00,VWS V13.01,2013-03-19 10:45:00,
2013-03-19 05:46:00,29.5,2.6,29.47,West,270,8.1,10.1,31,0.00,,,0.00,VWS V13.01,2013-03-19 10:46:00,
2013-03-19 05:47:00,29.5,2.6,29.47,WNW,292,7.6,8.1,31,0.00,,,0.00,VWS V13.01,2013-03-19 10:47:00,
2013-03-19 05:48:00,29.5,2.6,29.47,West,270,8.1,9.2,31,0.00,,,0.00,VWS V13.01,2013-03-19 10:48:00,
2013-03-19 05:49:00,29.5,2.6,29.47,West,270,7.2,8.1,31,0.00,,,0.00,VWS V13.01,2013-03-19 10:49:00,
2013-03-19 05:50:00,29.5,2.6,29.47,WNW,292,8.7,8.7,31,0.00,,,0.00,VWS V13.01,2013-03-19 10:50:00,
2013-03-19 05:51:00,29.5,2.6,29.47,West,270,4.9,8.7,31,0.00,,,0.00,VWS V13.01,2013-03-19 10:51:00,
2013-03-19 05:52:00,29.5,2.6,29.47,West,270,7.6,8.3,31,0.00,,,0.00,VWS V13.01,2013-03-19 10:52:00,
2013-03-19 05:53:00,29.5,2.6,29.47,West,270,7.6,8.1,31,0.00,,,0.00,VWS V13.01,2013-03-19 10:53:00,
2013-03-19 05:54:00,29.5,2.6,29.47,West,270,5.4,7.6,31,0.00,,,0.00,VWS V13.01,2013-03-19 10:54:00,
2013-03-19 05:55:00,29.5,2.6,29.47,West,270,5.8,6.3,31,0.00,,,0.00,VWS V13.01,2013-03-19 10:55:00,
2013-03-19 05:56:00,29.5,2.6,29.47,West,270,8.1,8.1,31,0.00,,,0.00,VWS V13.01,2013-03-19 10:56:00,
2013-03-19 05:57:00,29.5,2.6,29.47,West,270,7.6,8.7,31,0.00,,,0.00,VWS V13.01,2013-03-19 10:57:00,
2013-03-19 05:58:00,29.5,2.6,29.47,West,270,7.2,10.1,31,0.00,,,0.00,VWS V13.01,2013-03-19 10:58:00,
2013-03-19 05:59:00,29.5,2.6,29.47,West,270,8.7,8.7,31,0.00,,,0.00,VWS V13.01,2013-03-19 10:59:00,
2013-03-19 06:00:00,29.5,2.6,29.47,West,270,8.7,10.1,31,0.00,,,0.00,VWS V13.01,2013-03-19 11:00:00,
2013-03-19 06:01:00,29.5,2.6,29.47,West,270,9.6,11.0,31,0.00,,,0.00,VWS V13.01,2013-03-19 11:01:00,
2013-03-19 06:02:00,29.7,2.7,29.47,West,270,10.1,10.5,31,0.00,,,0.00,VWS V13.01,2013-03-19 11:02:00,
2013-03-19 06:03:00,29.7,2.7,29.47,West,270,8.7,10.5,31,0.00,,,0.00,VWS V13.01,2013-03-19 11:03:00,
2013-03-19 06:04:00,29.7,2.7,29.47,West,270,8.3,10.5,31,0.00,,,0.00,VWS V13.01,2013-03-19 11:04:00,
2013-03-19 06:05:00,29.7,2.7,29.47,West,270,7.6,8.3,31,0.00,,,0.00,VWS V13.01,2013-03-19 11:05:00,
2013-03-19 06:06:00,29.5,2.6,29.47,West,270,7.6,8.3,31,0.00,,,0.00,VWS V13.01,2013-03-19 11:06:00,
2013-03-19 06:07:00,29.5,2.6,29.47,West,270,6.7,8.7,31,0.00,,,0.00,VWS V13.01,2013-03-19 11:07:00,
2013-03-19 06:08:00,29.5,2.6,29.47,West,270,8.3,8.7,31,0.00,,,0.00,VWS V13.01,2013-03-19 11:08:00,
2013-03-19 06:09:00,29.5,2.6,29.47,West,270,10.1,10.1,31,0.00,,,0.00,VWS V13.01,2013-03-19 11:09:00,
2013-03-19 06:10:00,29.5,2.6,29.47,West,270,8.1,10.5,31,0.00,,,0.00,VWS V13.01,2013-03-19 11:10:00,
2013-03-19 06:11:00,29.5,2.6,29.47,West,270,8.3,8.7,31,0.00,,,0.00,VWS V13.01,2013-03-19 11:11:00,
2013-03-19 06:12:00,29.5,2.6,29.47,West,270,8.7,10.5,31,0.00,,,0.00,VWS V13.01,2013-03-19 11:12:00,
2013-03-19 06:13:00,29.5,2.6,29.47,West,270,8.7,10.5,31,0.00,,,0.00,VWS V13.01,2013-03-19 11:13:00,
2013-03-19 06:14:00,29.5,2.6,29.47,West,270,7.6,10.5,31,0.00,,,0.00,VWS V13.01,2013-03-19 11:14:00,
2013-03-19 06:15:00,29.5,2.6,29.47,West,270,5.8,8.3,31,0.00,,,0.00,VWS V13.01,2013-03-19 11:15:00,
2013-03-19 06:16:00,29.5,2.6,29.47,West,270,6.7,8.7,31,0.00,,,0.00,VWS V13.01,2013-03-19 11:16:00,
2013-03-19 06:17:00,29.3,2.4,29.47,West,270,11.0,12.8,31,0.00,,,0.00,VWS V13.01,2013-03-19 11:17:00,
2013-03-19 06:18:00,29.5,2.6,29.47,SW,225,8.3,11.0,31,0.00,,,0.00,VWS V13.01,2013-03-19 11:18:00,
2013-03-19 06:19:00,29.5,2.6,29.47,West,270,11.0,11.0,31,0.00,,,0.00,VWS V13.01,2013-03-19 11:19:00,
2013-03-19 06:20:00,29.5,2.6,29.47,West,270,8.7,14.5,31,0.00,,,0.00,VWS V13.01,2013-03-19 11:20:00,
2013-03-19 06:21:00,29.5,2.6,29.47,West,270,10.1,11.0,31,0.00,,,0.00,VWS V13.01,2013-03-19 11:21:00,
2013-03-19 06:22:00,29.5,2.6,29.47,West,270,8.3,10.1,31,0.00,,,0.00,VWS V13.01,2013-03-19 11:22:00,
2013-03-19 06:23:00,29.5,2.6,29.47,West,270,7.6,10.5,31,0.00,,,0.00,VWS V13.01,2013-03-19 11:23:00,
2013-03-19 06:24:00,29.5,2.6,29.47,West,270,9.6,9.6,31,0.00,,,0.00,VWS V13.01,2013-03-19 11:24:00,
2013-03-19 06:25:00,29.5,2.6,29.47,West,270,6.3,13.2,31,0.00,,,0.00,VWS V13.01,2013-03-19 11:25:00,
2013-03-19 06:26:00,29.7,2.7,29.47,SW,225,10.1,10.1,31,0.00,,,0.00,VWS V13.01,2013-03-19 11:26:00,
2013-03-19 06:27:00,29.7,2.7,29.47,West,270,15.0,17.0,31,0.00,,,0.00,VWS V13.01,2013-03-19 11:27:00,
2013-03-19 06:28:00,29.8,2.2,29.47,West,270,8.3,15.0,30,0.00,,,0.00,VWS V13.01,2013-03-19 11:28:00,
2013-03-19 06:29:00,29.8,2.2,29.47,West,270,8.3,11.0,30,0.00,,,0.00,VWS V13.01,2013-03-19 11:29:00,
2013-03-19 06:30:00,29.8,2.2,29.47,West,270,8.7,11.9,30,0.00,,,0.00,VWS V13.01,2013-03-19 11:30:00,
2013-03-19 06:31:00,29.8,2.2,29.47,West,270,13.6,15.9,30,0.00,,,0.00,VWS V13.01,2013-03-19 11:31:00,
2013-03-19 06:32:00,29.8,2.2,29.47,West,270,13.2,13.6,30,0.00,,,0.00,VWS V13.01,2013-03-19 11:32:00,
2013-03-19 06:33:00,29.8,2.2,29.47,SW,225,10.5,13.2,30,0.00,,,0.00,VWS V13.01,2013-03-19 11:33:00,
2013-03-19 06:34:00,29.8,2.2,29.47,West,270,7.6,15.4,30,0.00,,,0.00,VWS V13.01,2013-03-19 11:34:00,
2013-03-19 06:35:00,29.8,2.2,29.47,West,270,13.2,13.2,30,0.00,,,0.00,VWS V13.01,2013-03-19 11:35:00,
2013-03-19 06:36:00,30.0,0.9,29.47,West,270,10.1,13.2,28,0.00,,,0.00,VWS V13.01,2013-03-19 11:36:00,
2013-03-19 06:37:00,30.0,0.9,29.47,West,270,8.3,12.8,28,0.00,,,0.00,VWS V13.01,2013-03-19 11:37:00,
2013-03-19 06:38:00,30.0,0.9,29.47,West,270,13.2,13.2,28,0.00,,,0.00,VWS V13.01,2013-03-19 11:38:00,
2013-03-19 06:39:00,30.0,0.9,29.47,West,270,10.5,13.2,28,0.00,,,0.00,VWS V13.01,2013-03-19 11:39:00,
2013-03-19 06:40:00,30.0,0.9,29.47,West,270,8.1,15.4,28,0.00,,,0.00,VWS V13.01,2013-03-19 11:40:00,
2013-03-19 06:41:00,30.2,1.0,29.47,West,270,13.2,13.2,28,0.00,,,0.00,VWS V13.01,2013-03-19 11:41:00,
2013-03-19 06:42:00,30.2,-1.4,29.47,West,270,8.3,13.2,25,0.00,,,0.00,VWS V13.01,2013-03-19 11:42:00,
2013-03-19 06:43:00,30.2,-1.4,29.47,West,270,8.3,8.3,25,0.00,,,0.00,VWS V13.01,2013-03-19 11:43:00,
2013-03-19 06:44:00,30.2,-1.4,29.47,West,270,10.1,10.5,25,0.00,,,0.00,VWS V13.01,2013-03-19 11:44:00,
2013-03-19 06:45:00,30.0,0.9,29.47,West,270,11.4,12.3,28,0.00,,,0.00,VWS V13.01,2013-03-19 11:45:00,
2013-03-19 06:46:00,30.2,1.0,29.47,West,270,12.8,12.8,28,0.00,,,0.00,VWS V13.01,2013-03-19 11:46:00,
2013-03-19 06:47:00,30.2,-1.4,29.47,West,270,10.1,12.8,25,0.00,,,0.00,VWS V13.01,2013-03-19 11:47:00,
2013-03-19 06:48:00,30.2,-1.4,29.47,West,270,12.3,12.3,25,0.00,,,0.00,VWS V13.01,2013-03-19 11:48:00,
2013-03-19 06:49:00,30.2,-1.4,29.47,West,270,11.9,12.3,25,0.00,,,0.00,VWS V13.01,2013-03-19 11:49:00,
2013-03-19 06:50:00,30.2,-1.4,29.47,West,270,9.2,11.9,25,0.00,,,0.00,VWS V13.01,2013-03-19 11:50:00,
2013-03-19 06:51:00,30.2,-1.4,29.47,SW,225,9.2,9.2,25,0.00,,,0.00,VWS V13.01,2013-03-19 11:51:00,
2013-03-19 06:52:00,30.0,-1.5,29.47,WSW,248,11.9,11.9,25,0.00,,,0.00,VWS V13.01,2013-03-19 11:52:00,
2013-03-19 06:53:00,30.0,-1.5,29.47,West,270,6.3,11.9,25,0.00,,,0.00,VWS V13.01,2013-03-19 11:53:00,
2013-03-19 06:54:00,30.0,0.9,29.47,West,270,8.3,8.3,28,0.00,,,0.00,VWS V13.01,2013-03-19 11:54:00,
2013-03-19 06:55:00,30.0,0.9,29.47,West,270,10.5,10.5,28,0.00,,,0.00,VWS V13.01,2013-03-19 11:55:00,
2013-03-19 06:56:00,30.0,0.9,29.47,West,270,10.5,10.5,28,0.00,,,0.00,VWS V13.01,2013-03-19 11:56:00,
2013-03-19 06:57:00,29.8,0.7,29.47,West,270,8.1,10.5,28,0.00,,,0.00,VWS V13.01,2013-03-19 11:57:00,
2013-03-19 06:58:00,29.8,0.7,29.47,West,270,7.2,11.9,28,0.00,,,0.00,VWS V13.01,2013-03-19 11:58:00,
2013-03-19 06:59:00,29.8,0.7,29.47,SW,225,10.1,10.1,28,0.00,,,0.00,VWS V13.01,2013-03-19 11:59:00,
2013-03-19 07:00:00,29.8,0.7,29.47,West,270,6.3,10.5,28,0.00,,,0.00,VWS V13.01,2013-03-19 12:00:00,
2013-03-19 07:01:00,29.8,0.7,29.50,West,270,9.6,9.6,28,0.00,,,0.00,VWS V13.01,2013-03-19 12:01:00,
2013-03-19 07:02:00,29.8,0.7,29.50,West,270,6.3,9.6,28,0.00,,,0.00,VWS V13.01,2013-03-19 12:02:00,
2013-03-19 07:03:00,29.8,0.7,29.50,West,270,10.1,10.5,28,0.00,,,0.00,VWS V13.01,2013-03-19 12:03:00,
2013-03-19 07:04:00,29.8,0.7,29.50,West,270,10.1,10.1,28,0.00,,,0.00,VWS V13.01,2013-03-19 12:04:00,
2013-03-19 07:05:00,30.0,0.9,29.50,West,270,8.7,10.1,28,0.00,,,0.00,VWS V13.01,2013-03-19 12:05:00,
2013-03-19 07:06:00,30.0,0.9,29.50,West,270,8.1,8.7,28,0.00,,,0.00,VWS V13.01,2013-03-19 12:06:00,
2013-03-19 07:07:00,30.0,0.9,29.50,West,270,10.5,10.5,28,0.00,,,0.00,VWS V13.01,2013-03-19 12:07:00,
2013-03-19 07:08:00,29.8,0.7,29.50,West,270,8.7,12.8,28,0.00,,,0.00,VWS V13.01,2013-03-19 12:08:00,
2013-03-19 07:09:00,29.8,0.7,29.50,West,270,13.2,13.2,28,0.00,,,0.00,VWS V13.01,2013-03-19 12:09:00,
2013-03-19 07:10:00,29.8,0.7,29.50,West,270,12.8,13.2,28,0.00,,,0.00,VWS V13.01,2013-03-19 12:10:00,
2013-03-19 07:11:00,30.0,0.9,29.50,West,270,8.7,12.8,28,0.00,,,0.00,VWS V13.01,2013-03-19 12:11:00,
2013-03-19 07:12:00,30.0,0.9,29.50,West,270,8.1,11.0,28,0.00,,,0.00,VWS V13.01,2013-03-19 12:12:00,
2013-03-19 07:13:00,30.0,0.9,29.50,West,270,12.3,12.3,28,0.00,,,0.00,VWS V13.01,2013-03-19 12:13:00,
2013-03-19 07:14:00,30.0,0.9,29.50,West,270,13.2,15.0,28,0.00,,,0.00,VWS V13.01,2013-03-19 12:14:00,
2013-03-19 07:15:00,30.2,-1.4,29.50,West,270,12.8,13.2,25,0.00,,,0.00,VWS V13.01,2013-03-19 12:15:00,
2013-03-19 07:16:00,30.2,-1.4,29.50,West,270,16.8,16.8,25,0.00,,,0.00,VWS V13.01,2013-03-19 12:16:00,
2013-03-19 07:17:00,30.2,-1.4,29.50,West,270,13.6,16.8,25,0.00,,,0.00,VWS V13.01,2013-03-19 12:17:00,
2013-03-19 07:18:00,30.2,-1.4,29.50,West,270,12.3,13.6,25,0.00,,,0.00,VWS V13.01,2013-03-19 12:18:00,
2013-03-19 07:19:00,30.4,-1.2,29.50,WNW,292,11.4,12.8,25,0.00,,,0.00,VWS V13.01,2013-03-19 12:19:00,
2013-03-19 07:20:00,30.4,-1.2,29.50,West,270,10.5,11.4,25,0.00,,,0.00,VWS V13.01,2013-03-19 12:20:00,
2013-03-19 07:21:00,30.4,-1.2,29.50,West,270,9.6,12.3,25,0.00,,,0.00,VWS V13.01,2013-03-19 12:21:00,
2013-03-19 07:22:00,30.4,-1.2,29.50,West,270,13.6,13.6,25,0.00,,,0.00,VWS V13.01,2013-03-19 12:22:00,
2013-03-19 07:23:00,30.6,-1.1,29.50,West,270,17.5,17.5,25,0.00,,,0.00,VWS V13.01,2013-03-19 12:23:00,
2013-03-19 07:24:00,30.6,-2.8,29.50,West,270,12.3,17.5,23,0.00,,,0.00,VWS V13.01,2013-03-19 12:24:00,
2013-03-19 07:25:00,30.7,-2.7,29.50,West,270,9.2,15.4,23,0.00,,,0.00,VWS V13.01,2013-03-19 12:25:00,
2013-03-19 07:28:00,30.7,-2.7,29.50,West,270,10.5,12.8,23,0.00,,,0.00,VWS V13.01,2013-03-19 12:28:00,
2013-03-19 07:35:00,31.1,-2.4,29.50,West,270,8.3,8.3,23,0.00,,,0.00,VWS V13.01,2013-03-19 12:35:00,
2013-03-19 07:41:00,31.3,-2.2,29.50,West,270,6.7,16.3,23,0.00,,,0.00,VWS V13.01,2013-03-19 12:41:00,
2013-03-19 07:46:00,31.3,-2.2,29.50,West,270,5.4,10.5,23,0.00,,,0.00,VWS V13.01,2013-03-19 12:46:00,
2013-03-19 07:51:00,31.3,-2.2,29.50,West,270,11.9,11.9,23,0.00,,,0.00,VWS V13.01,2013-03-19 12:51:00,
2013-03-19 07:56:00,31.5,-2.0,29.50,West,270,7.6,12.3,23,0.00,,,0.00,VWS V13.01,2013-03-19 12:56:00,
2013-03-19 08:01:00,31.6,-1.9,29.50,West,270,7.6,7.6,23,0.00,,,0.00,VWS V13.01,2013-03-19 13:01:00,
2013-03-19 08:06:00,31.8,-1.8,29.50,WNW,292,2.7,2.7,23,0.00,,,0.00,VWS V13.01,2013-03-19 13:06:00,
2013-03-19 08:11:00,32.2,-1.4,29.50,West,270,5.4,8.1,23,0.00,,,0.00,VWS V13.01,2013-03-19 13:11:00,
2013-03-19 08:16:00,32.4,-1.3,29.50,West,270,13.2,13.2,23,0.00,,,0.00,VWS V13.01,2013-03-19 13:16:00,
2013-03-19 08:21:00,32.5,-1.1,29.50,West,270,9.6,14.5,23,0.00,,,0.00,VWS V13.01,2013-03-19 13:21:00,
2013-03-19 08:27:00,32.7,-1.0,29.50,West,270,15.0,19.7,23,0.00,,,0.00,VWS V13.01,2013-03-19 13:27:00,
2013-03-19 08:32:00,32.7,-1.0,29.50,NW,315,8.7,13.2,23,0.00,,,0.00,VWS V13.01,2013-03-19 13:32:00,
2013-03-19 08:37:00,32.9,-0.8,29.50,West,270,6.7,15.4,23,0.00,,,0.00,VWS V13.01,2013-03-19 13:37:00,
2013-03-19 08:42:00,33.3,-0.5,29.50,West,270,11.0,13.2,23,0.00,,,0.00,VWS V13.01,2013-03-19 13:42:00,
2013-03-19 08:47:00,33.3,-0.5,29.50,NW,315,7.6,10.1,23,0.00,,,0.00,VWS V13.01,2013-03-19 13:47:00,
2013-03-19 08:52:00,33.6,-0.2,29.50,West,270,14.5,14.5,23,0.00,,,0.00,VWS V13.01,2013-03-19 13:52:00,
2013-03-19 08:57:00,33.4,-0.4,29.50,West,270,15.0,15.0,23,0.00,,,0.00,VWS V13.01,2013-03-19 13:57:00,
2013-03-19 09:02:00,33.1,-0.7,29.50,WNW,292,13.6,15.0,23,0.00,,,0.00,VWS V13.01,2013-03-19 14:02:00,
2013-03-19 09:07:00,33.4,-0.4,29.50,NW,315,8.3,8.3,23,0.00,,,0.00,VWS V13.01,2013-03-19 14:07:00,
2013-03-19 09:12:00,33.8,-1.0,29.50,NW,315,8.7,11.9,22,0.00,,,0.00,VWS V13.01,2013-03-19 14:12:00,
2013-03-19 09:17:00,34.0,-0.9,29.53,West,270,9.6,15.4,22,0.00,,,0.00,VWS V13.01,2013-03-19 14:17:00,
2013-03-19 09:22:00,34.0,-2.9,29.53,West,270,11.4,11.4,20,0.00,,,0.00,VWS V13.01,2013-03-19 14:22:00,
2013-03-19 09:27:00,34.2,-2.7,29.53,West,270,7.6,12.3,20,0.00,,,0.00,VWS V13.01,2013-03-19 14:27:00,
2013-03-19 09:32:00,34.5,-2.4,29.53,WNW,292,13.2,13.2,20,0.00,,,0.00,VWS V13.01,2013-03-19 14:32:00,
2013-03-19 09:38:00,34.5,-2.4,29.53,WNW,292,11.0,11.0,20,0.00,,,0.00,VWS V13.01,2013-03-19 14:38:00,
2013-03-19 09:43:00,35.1,-2.0,29.53,West,270,8.1,9.6,20,0.00,,,0.00,VWS V13.01,2013-03-19 14:43:00,
2013-03-19 09:48:00,35.1,-2.0,29.53,WNW,292,7.6,9.6,20,0.00,,,0.00,VWS V13.01,2013-03-19 14:48:00,
2013-03-19 09:53:00,35.2,-1.8,29.56,West,270,12.3,12.3,20,0.00,,,0.00,VWS V13.01,2013-03-19 14:53:00,
2013-03-19 09:58:00,35.2,-1.8,29.56,West,270,8.7,12.8,20,0.00,,,0.00,VWS V13.01,2013-03-19 14:58:00,
2013-03-19 10:03:00,35.6,-2.6,29.56,West,270,14.1,14.1,19,0.00,,,0.00,VWS V13.01,2013-03-19 15:03:00,
2013-03-19 10:08:00,35.8,-2.4,29.56,West,270,8.7,8.7,19,0.00,,,0.00,VWS V13.01,2013-03-19 15:08:00,
2013-03-19 10:13:00,36.3,-2.0,29.56,West,270,7.6,8.1,19,0.00,,,0.00,VWS V13.01,2013-03-19 15:13:00,
2013-03-19 10:19:00,36.1,-2.1,29.56,West,270,11.0,13.2,19,0.00,,,0.00,VWS V13.01,2013-03-19 15:19:00,
2013-03-19 10:24:00,36.3,-2.0,29.56,NW,315,7.2,10.5,19,0.00,,,0.00,VWS V13.01,2013-03-19 15:24:00,
2013-03-19 10:29:00,36.5,-1.8,29.56,NW,315,11.9,12.3,19,0.00,,,0.00,VWS V13.01,2013-03-19 15:29:00,
2013-03-19 10:34:00,36.7,-1.7,29.56,West,270,11.0,14.5,19,0.00,,,0.00,VWS V13.01,2013-03-19 15:34:00,
2013-03-19 10:39:00,36.7,-1.7,29.56,West,270,8.1,8.7,19,0.00,,,0.00,VWS V13.01,2013-03-19 15:39:00,
2013-03-19 10:44:00,36.7,-1.7,29.56,West,270,9.2,11.9,19,0.00,,,0.00,VWS V13.01,2013-03-19 15:44:00,
2013-03-19 10:49:00,36.9,-1.5,29.56,West,270,12.8,12.8,19,0.00,,,0.00,VWS V13.01,2013-03-19 15:49:00,
2013-03-19 10:54:00,37.4,-1.1,29.56,NNW,338,8.1,10.1,19,0.00,,,0.00,VWS V13.01,2013-03-19 15:54:00,
2013-03-19 11:00:00,37.0,-1.4,29.56,West,270,8.3,9.2,19,0.00,,,0.00,VWS V13.01,2013-03-19 16:00:00,
2013-03-19 11:05:00,37.4,-1.1,29.59,West,270,3.1,7.6,19,0.00,,,0.00,VWS V13.01,2013-03-19 16:05:00,
2013-03-19 11:10:00,37.6,-0.9,29.59,WNW,292,8.7,12.3,19,0.00,,,0.00,VWS V13.01,2013-03-19 16:10:00,
2013-03-19 11:15:00,37.9,-0.6,29.59,West,270,7.6,9.6,19,0.00,,,0.00,VWS V13.01,2013-03-19 16:15:00,
2013-03-19 11:20:00,37.9,-0.6,29.59,West,270,11.4,12.8,19,0.00,,,0.00,VWS V13.01,2013-03-19 16:20:00,
2013-03-19 11:26:00,37.8,-0.8,29.59,West,270,11.0,15.4,19,0.00,,,0.00,VWS V13.01,2013-03-19 16:26:00,
2013-03-19 11:31:00,37.9,-0.6,29.59,NW,315,8.3,12.3,19,0.00,,,0.00,VWS V13.01,2013-03-19 16:31:00,
2013-03-19 11:36:00,37.6,-0.9,29.59,West,270,10.1,10.1,19,0.00,,,0.00,VWS V13.01,2013-03-19 16:36:00,
2013-03-19 11:41:00,38.1,-0.5,29.59,West,270,12.8,14.1,19,0.00,,,0.00,VWS V13.01,2013-03-19 16:41:00,
2013-03-19 11:46:00,38.3,-0.3,29.59,West,270,15.4,15.4,19,0.00,,,0.00,VWS V13.01,2013-03-19 16:46:00,
2013-03-19 11:52:00,38.5,-0.2,29.59,West,270,17.5,17.5,19,0.00,,,0.00,VWS V13.01,2013-03-19 16:52:00,
2013-03-19 11:57:00,38.7,0.0,29.59,West,270,8.3,8.3,19,0.00,,,0.00,VWS V13.01,2013-03-19 16:57:00,
2013-03-19 12:02:00,38.7,0.0,29.59,South,180,8.3,14.5,19,0.00,,,0.00,VWS V13.01,2013-03-19 17:02:00,
2013-03-19 12:07:00,38.5,-0.2,29.59,West,270,10.5,10.5,19,0.00,,,0.00,VWS V13.01,2013-03-19 17:07:00,
2013-03-19 12:12:00,39.4,-0.6,29.59,SW,225,8.1,10.5,18,0.00,,,0.00,VWS V13.01,2013-03-19 17:12:00,
2013-03-19 12:18:00,39.6,-0.4,29.59,West,270,12.8,15.4,18,0.00,,,0.00,VWS V13.01,2013-03-19 17:18:00,
2013-03-19 12:23:00,39.9,-0.1,29.59,West,270,7.6,19.7,18,0.00,,,0.00,VWS V13.01,2013-03-19 17:23:00,
2013-03-19 12:28:00,40.3,0.2,29.59,West,270,12.8,12.8,18,0.00,,,0.00,VWS V13.01,2013-03-19 17:28:00,
2013-03-19 12:33:00,40.1,0.0,29.59,West,270,9.2,12.8,18,0.00,,,0.00,VWS V13.01,2013-03-19 17:33:00,
2013-03-19 12:38:00,40.6,0.5,29.59,West,270,12.8,12.8,18,0.00,,,0.00,VWS V13.01,2013-03-19 17:38:00,
2013-03-19 12:43:00,40.6,0.5,29.59,West,270,8.1,12.8,18,0.00,,,0.00,VWS V13.01,2013-03-19 17:43:00,
2013-03-19 12:48:00,40.8,0.6,29.59,West,270,8.7,10.5,18,0.00,,,0.00,VWS V13.01,2013-03-19 17:48:00,
2013-03-19 12:53:00,41.7,1.4,29.59,West,270,8.3,9.6,18,0.00,,,0.00,VWS V13.01,2013-03-19 17:53:00,
2013-03-19 12:58:00,41.9,1.5,29.59,West,270,8.1,10.5,18,0.00,,,0.00,VWS V13.01,2013-03-19 17:58:00,
2013-03-19 13:03:00,41.7,1.4,29.59,West,270,8.3,9.6,18,0.00,,,0.00,VWS V13.01,2013-03-19 18:03:00,
2013-03-19 13:09:00,41.4,1.0,29.59,West,270,8.3,12.3,18,0.00,,,0.00,VWS V13.01,2013-03-19 18:09:00,
2013-03-19 13:14:00,42.1,1.6,29.59,West,270,6.7,8.7,18,0.00,,,0.00,VWS V13.01,2013-03-19 18:14:00,
2013-03-19 13:19:00,42.3,1.8,29.59,NW,315,10.5,10.5,18,0.00,,,0.00,VWS V13.01,2013-03-19 18:19:00,
2013-03-19 13:24:00,42.4,1.9,29.59,West,270,9.2,9.6,18,0.00,,,0.00,VWS V13.01,2013-03-19 18:24:00,
2013-03-19 13:29:00,42.6,2.1,29.59,WNW,292,7.6,13.2,18,0.00,,,0.00,VWS V13.01,2013-03-19 18:29:00,
2013-03-19 13:34:00,42.1,1.6,29.59,West,270,12.8,14.5,18,0.00,,,0.00,VWS V13.01,2013-03-19 18:34:00,
2013-03-19 13:39:00,42.4,1.9,29.59,West,270,7.6,13.2,18,0.00,,,0.00,VWS V13.01,2013-03-19 18:39:00,
2013-03-19 13:44:00,43.0,2.4,29.59,West,270,10.5,10.5,18,0.00,,,0.00,VWS V13.01,2013-03-19 18:44:00,
2013-03-19 13:49:00,43.3,2.7,29.59,NW,315,8.7,11.4,18,0.00,,,0.00,VWS V13.01,2013-03-19 18:49:00,
2013-03-19 13:55:00,43.2,2.5,29.59,West,270,9.2,11.0,18,0.00,,,0.00,VWS V13.01,2013-03-19 18:55:00,
2013-03-19 14:00:00,43.5,2.8,29.59,West,270,5.8,5.8,18,0.00,,,0.00,VWS V13.01,2013-03-19 19:00:00,
2013-03-19 14:05:00,43.7,3.0,29.59,NNW,338,5.4,11.0,18,0.00,,,0.00,VWS V13.01,2013-03-19 19:05:00,
2013-03-19 14:10:00,44.1,3.3,29.59,West,270,5.8,8.1,18,0.00,,,0.00,VWS V13.01,2013-03-19 19:10:00,
2013-03-19 14:15:00,44.2,3.4,29.59,West,270,6.3,12.8,18,0.00,,,0.00,VWS V13.01,2013-03-19 19:15:00,
2013-03-19 14:20:00,43.7,3.0,29.56,WNW,292,4.9,6.7,18,0.00,,,0.00,VWS V13.01,2013-03-19 19:20:00,
2013-03-19 14:25:00,44.6,2.5,29.56,NW,315,4.0,8.3,17,0.00,,,0.00,VWS V13.01,2013-03-19 19:25:00,
2013-03-19 14:30:00,44.4,3.6,29.59,WNW,292,9.2,11.0,18,0.00,,,0.00,VWS V13.01,2013-03-19 19:30:00,
2013-03-19 14:36:00,45.1,2.9,29.59,West,270,8.3,8.3,17,0.00,,,0.00,VWS V13.01,2013-03-19 19:36:00,
2013-03-19 14:41:00,45.1,2.9,29.59,WNW,292,8.3,8.3,17,0.00,,,0.00,VWS V13.01,2013-03-19 19:41:00,
2013-03-19 14:46:00,45.1,2.9,29.56,West,270,7.6,8.7,17,0.00,,,0.00,VWS V13.01,2013-03-19 19:46:00,
2013-03-19 14:52:00,44.6,2.5,29.56,West,270,6.3,10.1,17,0.00,,,0.00,VWS V13.01,2013-03-19 19:52:00,
2013-03-19 14:57:00,45.0,2.8,29.56,WNW,292,6.3,10.1,17,0.00,,,0.00,VWS V13.01,2013-03-19 19:57:00,
2013-03-19 15:02:00,44.6,2.5,29.56,West,270,4.5,11.0,17,0.00,,,0.00,VWS V13.01,2013-03-19 20:02:00,
2013-03-19 15:07:00,45.1,2.9,29.56,West,270,10.1,10.5,17,0.00,,,0.00,VWS V13.01,2013-03-19 20:07:00,
2013-03-19 15:12:00,44.8,2.6,29.56,West,270,8.7,8.7,17,0.00,,,0.00,VWS V13.01,2013-03-19 20:12:00,
2013-03-19 15:17:00,45.0,2.8,29.56,WNW,292,5.4,7.2,17,0.00,,,0.00,VWS V13.01,2013-03-19 20:17:00,
2013-03-19 15:23:00,44.6,2.5,29.56,WNW,292,8.7,8.7,17,0.00,,,0.00,VWS V13.01,2013-03-19 20:23:00,
2013-03-19 15:28:00,44.1,3.3,29.56,WNW,292,8.7,10.5,18,0.00,,,0.00,VWS V13.01,2013-03-19 20:28:00,
2013-03-19 15:33:00,45.0,2.8,29.56,NW,315,8.3,8.3,17,0.00,,,0.00,VWS V13.01,2013-03-19 20:33:00,
2013-03-19 15:38:00,44.8,2.6,29.56,NW,315,6.3,6.3,17,0.00,,,0.00,VWS V13.01,2013-03-19 20:38:00,
2013-03-19 15:43:00,45.3,3.1,29.56,West,270,8.1,8.1,17,0.00,,,0.00,VWS V13.01,2013-03-19 20:43:00,
2013-03-19 15:48:00,45.3,3.1,29.56,NW,315,6.3,8.1,17,0.00,,,0.00,VWS V13.01,2013-03-19 20:48:00,
2013-03-19 15:53:00,45.3,3.1,29.56,NW,315,10.1,10.1,17,0.00,,,0.00,VWS V13.01,2013-03-19 20:53:00,
2013-03-19 15:59:00,45.3,3.1,29.56,West,270,6.3,6.3,17,0.00,,,0.00,VWS V13.01,2013-03-19 20:59:00,
2013-03-19 16:04:00,44.8,2.6,29.56,West,270,8.7,11.0,17,0.00,,,0.00,VWS V13.01,2013-03-19 21:04:00,
2013-03-19 16:09:00,44.6,2.5,29.56,WNW,292,6.3,8.1,17,0.00,,,0.00,VWS V13.01,2013-03-19 21:09:00,
2013-03-19 16:14:00,44.8,2.6,29.56,West,270,9.2,9.2,17,0.00,,,0.00,VWS V13.01,2013-03-19 21:14:00,
2013-03-19 16:19:00,44.8,2.6,29.56,West,270,7.6,7.6,17,0.00,,,0.00,VWS V13.01,2013-03-19 21:19:00,
2013-03-19 16:25:00,44.8,2.6,29.56,West,270,6.7,7.2,17,0.00,,,0.00,VWS V13.01,2013-03-19 21:25:00,
2013-03-19 16:30:00,44.8,2.6,29.56,NW,315,5.8,9.2,17,0.00,,,0.00,VWS V13.01,2013-03-19 21:30:00,
2013-03-19 16:35:00,44.8,2.6,29.56,West,270,10.5,10.5,17,0.00,,,0.00,VWS V13.01,2013-03-19 21:35:00,
2013-03-19 16:40:00,44.4,3.6,29.56,WNW,292,8.7,8.7,18,0.00,,,0.00,VWS V13.01,2013-03-19 21:40:00,
2013-03-19 16:45:00,44.8,2.6,29.56,West,270,8.1,8.1,17,0.00,,,0.00,VWS V13.01,2013-03-19 21:45:00,
2013-03-19 16:51:00,45.1,2.9,29.56,West,270,3.1,6.3,17,0.00,,,0.00,VWS V13.01,2013-03-19 21:51:00,
2013-03-19 16:56:00,45.1,2.9,29.56,NW,315,8.7,8.7,17,0.00,,,0.00,VWS V13.01,2013-03-19 21:56:00,
2013-03-19 17:01:00,45.0,2.8,29.56,West,270,2.7,4.9,17,0.00,,,0.00,VWS V13.01,2013-03-19 22:01:00,
2013-03-19 17:06:00,45.0,2.8,29.56,West,270,4.0,4.9,17,0.00,,,0.00,VWS V13.01,2013-03-19 22:06:00,
2013-03-19 17:11:00,45.0,2.8,29.56,SW,225,5.8,7.6,17,0.00,,,0.00,VWS V13.01,2013-03-19 22:11:00,
2013-03-19 17:17:00,45.0,2.8,29.56,NW,315,3.6,6.3,17,0.00,,,0.00,VWS V13.01,2013-03-19 22:17:00,
2013-03-19 17:22:00,45.1,2.9,29.56,WNW,292,5.8,8.7,17,0.00,,,0.00,VWS V13.01,2013-03-19 22:22:00,
2013-03-19 17:27:00,45.0,2.8,29.56,West,270,5.8,8.1,17,0.00,,,0.00,VWS V13.01,2013-03-19 22:27:00,
2013-03-19 17:32:00,45.0,2.8,29.56,West,270,5.8,8.7,17,0.00,,,0.00,VWS V13.01,2013-03-19 22:32:00,
2013-03-19 17:37:00,45.0,2.8,29.56,West,270,5.4,5.4,17,0.00,,,0.00,VWS V13.01,2013-03-19 22:37:00,
2013-03-19 17:42:00,44.8,2.6,29.56,WNW,292,8.7,8.7,17,0.00,,,0.00,VWS V13.01,2013-03-19 22:42:00,
2013-03-19 17:47:00,44.8,2.6,29.56,West,270,5.8,8.3,17,0.00,,,0.00,VWS V13.01,2013-03-19 22:47:00,
2013-03-19 17:52:00,44.8,2.6,29.56,SW,225,8.1,8.1,17,0.00,,,0.00,VWS V13.01,2013-03-19 22:52:00,
2013-03-19 17:57:00,44.8,2.6,29.56,West,270,6.3,8.1,17,0.00,,,0.00,VWS V13.01,2013-03-19 22:57:00,
2013-03-19 18:02:00,44.8,2.6,29.56,WNW,292,6.3,7.6,17,0.00,,,0.00,VWS V13.01,2013-03-19 23:02:00,
2013-03-19 18:07:00,44.6,2.5,29.56,West,270,6.7,8.3,17,0.00,,,0.00,VWS V13.01,2013-03-19 23:07:00,
2013-03-19 18:12:00,44.6,2.5,29.56,West,270,5.4,7.6,17,0.00,,,0.00,VWS V13.01,2013-03-19 23:12:00,
2013-03-19 18:17:00,44.4,3.6,29.56,West,270,7.6,10.1,18,0.00,,,0.00,VWS V13.01,2013-03-19 23:17:00,
2013-03-19 18:23:00,44.2,3.4,29.56,West,270,7.2,7.6,18,0.00,,,0.00,VWS V13.01,2013-03-19 23:23:00,
2013-03-19 18:28:00,44.2,3.4,29.56,West,270,9.6,9.6,18,0.00,,,0.00,VWS V13.01,2013-03-19 23:28:00,
2013-03-19 18:33:00,44.1,3.3,29.56,West,270,5.8,7.2,18,0.00,,,0.00,VWS V13.01,2013-03-19 23:33:00,
2013-03-19 18:38:00,43.9,3.1,29.56,WNW,292,4.9,8.3,18,0.00,,,0.00,VWS V13.01,2013-03-19 23:38:00,
2013-03-19 18:43:00,43.7,3.0,29.56,West,270,3.6,6.3,18,0.00,,,0.00,VWS V13.01,2013-03-19 23:43:00,
2013-03-19 18:48:00,43.5,2.8,29.56,West,270,5.4,6.3,18,0.00,,,0.00,VWS V13.01,2013-03-19 23:48:00,
2013-03-19 18:53:00,43.3,2.7,29.56,West,270,3.6,5.4,18,0.00,,,0.00,VWS V13.01,2013-03-19 23:53:00,
2013-03-19 18:58:00,43.0,2.4,29.56,West,270,5.4,5.4,18,0.00,,,0.00,VWS V13.01,2013-03-19 23:58:00,
2013-03-19 19:03:00,43.0,2.4,29.56,West,270,3.6,4.0,18,0.00,,,0.00,VWS V13.01,2013-03-20 00:03:00,
2013-03-19 19:08:00,42.8,2.2,29.56,West,270,4.5,6.3,18,0.00,,,0.00,VWS V13.01,2013-03-20 00:08:00,
2013-03-19 19:13:00,42.6,2.1,29.56,West,270,3.6,3.6,18,0.00,,,0.00,VWS V13.01,2013-03-20 00:13:00,
2013-03-19 19:19:00,42.4,1.9,29.56,West,270,3.6,3.6,18,0.00,,,0.00,VWS V13.01,2013-03-20 00:19:00,
2013-03-19 19:24:00,42.3,1.8,29.56,West,270,3.6,3.6,18,0.00,,,0.00,VWS V13.01,2013-03-20 00:24:00,
2013-03-19 19:29:00,41.9,1.5,29.56,West,270,3.6,3.6,18,0.00,,,0.00,VWS V13.01,2013-03-20 00:29:00,
2013-03-19 19:34:00,41.7,1.4,29.56,West,270,3.6,3.6,18,0.00,,,0.00,VWS V13.01,2013-03-20 00:34:00,
2013-03-19 19:39:00,41.5,1.2,29.56,West,270,0.0,0.0,18,0.00,,,0.00,VWS V13.01,2013-03-20 00:39:00,
2013-03-19 19:44:00,41.5,1.2,29.56,West,270,0.0,0.0,18,0.00,,,0.00,VWS V13.01,2013-03-20 00:44:00,
2013-03-19 19:49:00,41.4,1.0,29.56,West,270,0.0,0.0,18,0.00,,,0.00,VWS V13.01,2013-03-20 00:49:00,
2013-03-19 19:54:00,41.4,1.0,29.56,West,270,0.0,0.0,18,0.00,,,0.00,VWS V13.01,2013-03-20 00:54:00,
2013-03-19 19:59:00,41.2,0.9,29.56,West,270,0.0,0.0,18,0.00,,,0.00,VWS V13.01,2013-03-20 00:59:00,
2013-03-19 20:04:00,41.2,0.9,29.56,West,270,0.0,0.0,18,0.00,,,0.00,VWS V13.01,2013-03-20 01:04:00,
2013-03-19 20:10:00,41.2,0.9,29.56,West,270,0.0,0.0,18,0.00,,,0.00,VWS V13.01,2013-03-20 01:10:00,
2013-03-19 20:15:00,41.2,0.9,29.56,West,270,0.0,0.0,18,0.00,,,0.00,VWS V13.01,2013-03-20 01:15:00,
2013-03-19 20:20:00,41.0,0.8,29.56,West,270,0.0,0.0,18,0.00,,,0.00,VWS V13.01,2013-03-20 01:20:00,
2013-03-19 20:25:00,40.8,0.6,29.56,West,270,0.0,0.0,18,0.00,,,0.00,VWS V13.01,2013-03-20 01:25:00,
2013-03-19 20:30:00,40.8,0.6,29.56,West,270,0.0,0.0,18,0.00,,,0.00,VWS V13.01,2013-03-20 01:30:00,
2013-03-19 20:35:00,40.6,0.5,29.56,West,270,0.0,0.0,18,0.00,,,0.00,VWS V13.01,2013-03-20 01:35:00,
2013-03-19 20:41:00,40.5,0.3,29.56,West,270,0.0,0.0,18,0.00,,,0.00,VWS V13.01,2013-03-20 01:41:00,
2013-03-19 20:46:00,40.3,0.2,29.56,West,270,0.0,0.0,18,0.00,,,0.00,VWS V13.01,2013-03-20 01:46:00,
2013-03-19 20:51:00,40.1,0.0,29.56,West,270,0.0,0.0,18,0.00,,,0.00,VWS V13.01,2013-03-20 01:51:00,
2013-03-19 20:56:00,39.9,-0.1,29.56,West,270,0.0,0.0,18,0.00,,,0.00,VWS V13.01,2013-03-20 01:56:00,
2013-03-19 21:01:00,39.7,-0.3,29.56,West,270,0.0,0.0,18,0.00,,,0.00,VWS V13.01,2013-03-20 02:01:00,
2013-03-19 21:06:00,39.7,-0.3,29.56,West,270,4.0,4.0,18,0.00,,,0.00,VWS V13.01,2013-03-20 02:06:00,
2013-03-19 21:11:00,39.7,-0.3,29.56,West,270,0.0,0.0,18,0.00,,,0.00,VWS V13.01,2013-03-20 02:11:00,
2013-03-19 21:16:00,39.6,-0.4,29.56,West,270,0.0,0.0,18,0.00,,,0.00,VWS V13.01,2013-03-20 02:16:00,
2013-03-19 21:21:00,39.4,-0.6,29.56,West,270,0.0,0.0,18,0.00,,,0.00,VWS V13.01,2013-03-20 02:21:00,
2013-03-19 21:27:00,39.2,-0.7,29.56,West,270,0.0,0.0,18,0.00,,,0.00,VWS V13.01,2013-03-20 02:27:00,
2013-03-19 21:32:00,39.2,-0.7,29.56,West,270,4.0,4.9,18,0.00,,,0.00,VWS V13.01,2013-03-20 02:32:00,
2013-03-19 21:37:00,39.2,-0.7,29.56,West,270,4.0,4.0,18,0.00,,,0.00,VWS V13.01,2013-03-20 02:37:00,
2013-03-19 21:42:00,39.2,-0.7,29.56,West,270,3.6,3.6,18,0.00,,,0.00,VWS V13.01,2013-03-20 02:42:00,
2013-03-19 21:47:00,39.2,-0.7,29.56,West,270,0.0,0.0,18,0.00,,,0.00,VWS V13.01,2013-03-20 02:47:00,
2013-03-19 21:52:00,39.0,0.3,29.56,West,270,0.0,0.0,19,0.00,,,0.00,VWS V13.01,2013-03-20 02:52:00,
2013-03-19 21:57:00,39.0,0.3,29.56,West,270,0.0,0.0,19,0.00,,,0.00,VWS V13.01,2013-03-20 02:57:00,
2013-03-19 22:02:00,38.8,0.1,29.56,West,270,2.2,3.1,19,0.00,,,0.00,VWS V13.01,2013-03-20 03:02:00,
2013-03-19 22:07:00,38.8,0.1,29.56,SW,225,3.6,4.0,19,0.00,,,0.00,VWS V13.01,2013-03-20 03:07:00,
2013-03-19 22:13:00,38.7,0.0,29.56,SW,225,0.0,2.2,19,0.00,,,0.00,VWS V13.01,2013-03-20 03:13:00,
2013-03-19 22:18:00,38.7,0.0,29.56,West,270,4.9,4.9,19,0.00,,,0.00,VWS V13.01,2013-03-20 03:18:00,
2013-03-19 22:23:00,38.5,-0.2,29.56,West,270,0.0,0.0,19,0.00,,,0.00,VWS V13.01,2013-03-20 03:23:00,
2013-03-19 22:28:00,38.3,-0.3,29.56,West,270,4.0,5.4,19,0.00,,,0.00,VWS V13.01,2013-03-20 03:28:00,
2013-03-19 22:33:00,38.3,-0.3,29.56,SW,225,4.9,4.9,19,0.00,,,0.00,VWS V13.01,2013-03-20 03:33:00,
2013-03-19 22:38:00,38.1,-0.5,29.56,SW,225,3.1,3.1,19,0.00,,,0.00,VWS V13.01,2013-03-20 03:38:00,
2013-03-19 22:43:00,37.9,-0.6,29.56,West,270,4.0,5.8,19,0.00,,,0.00,VWS V13.01,2013-03-20 03:43:00,
2013-03-19 22:49:00,37.9,-0.6,29.56,West,270,3.6,4.0,19,0.00,,,0.00,VWS V13.01,2013-03-20 03:49:00,
2013-03-19 22:54:00,37.9,-0.6,29.56,West,270,0.0,5.4,19,0.00,,,0.00,VWS V13.01,2013-03-20 03:54:00,
2013-03-19 22:59:00,37.8,-0.8,29.56,West,270,3.1,4.0,19,0.00,,,0.00,VWS V13.01,2013-03-20 03:59:00,
2013-03-19 23:00:00,37.8,-0.8,29.56,West,270,2.2,3.6,19,0.00,,,0.00,VWS V13.01,2013-03-20 04:00:00,
2013-03-19 23:01:00,37.8,-0.8,29.56,SW,225,0.0,2.2,19,0.00,,,0.00,VWS V13.01,2013-03-20 04:01:00,
2013-03-19 23:03:00,37.8,-0.8,29.56,SW,225,2.7,4.5,19,0.00,,,0.00,VWS V13.01,2013-03-20 04:03:00,
2013-03-19 23:08:00,37.6,-0.9,29.56,West,270,3.1,4.0,19,0.00,,,0.00,VWS V13.01,2013-03-20 04:08:00,
2013-03-19 23:13:00,37.4,-1.1,29.56,West,270,3.1,4.0,19,0.00,,,0.00,VWS V13.01,2013-03-20 04:13:00,
2013-03-19 23:18:00,37.2,-1.2,29.56,West,270,3.6,4.0,19,0.00,,,0.00,VWS V13.01,2013-03-20 04:18:00,
2013-03-19 23:23:00,36.9,-1.5,29.56,West,270,2.7,4.0,19,0.00,,,0.00,VWS V13.01,2013-03-20 04:23:00,
2013-03-19 23:28:00,36.5,-1.8,29.56,West,270,4.0,4.9,19,0.00,,,0.00,VWS V13.01,2013-03-20 04:28:00,
2013-03-19 23:33:00,36.3,-2.0,29.56,West,270,5.4,6.3,19,0.00,,,0.00,VWS V13.01,2013-03-20 04:33:00,
2013-03-19 23:38:00,36.7,-1.7,29.56,West,270,5.8,6.3,19,0.00,,,0.00,VWS V13.01,2013-03-20 04:38:00,
2013-03-19 23:43:00,36.9,-1.5,29.56,West,270,5.4,5.8,19,0.00,,,0.00,VWS V13.01,2013-03-20 04:43:00,
2013-03-19 23:49:00,36.9,-1.5,29.56,West,270,5.8,5.8,19,0.00,,,0.00,VWS V13.01,2013-03-20 04:49:00,
2013-03-19 23:54:00,36.9,-1.5,29.56,West,270,5.4,8.3,19,0.00,,,0.00,VWS V13.01,2013-03-20 04:54:00,
2013-03-19 23:59:00,36.9,-1.5,29.56,West,270,5.4,6.3,19,0.00,,,0.00,VWS V13.01,2013-03-20 04:59:00,